     2              OBSERVATION DATA    GPS                 RINEX VERSION / TYPE
TRRINEXO-V1.2 CALTECH 15-MAR-1991                           PGM / RUN BY / DATE
                                                            COMMENT
Original Marker Name: 0040                                  COMMENT
Campaign Name: 1991 Intercounty 1991                        COMMENT
4-Character Station Name: 0040                              COMMENT
6-Character Antenna Code: TRMSST                            COMMENT
Vertical Measurement Point: TGP                             COMMENT
Vertical Offset to Rinex Ref. Point: 0.0629                 COMMENT
Radial Measurement Point: NGP                               COMMENT
Radial Offset to Rinex Ref. Point: 0.2334                   COMMENT
Antenna Height from Field Measurement: 1.3730 m             COMMENT
Original XYZ: -2519758.7437 -4669435.8033 3527794.1318      COMMENT
New XYZ position is based on association with SCEC monument COMMENT
E1C7V4T9+0011. Position of that monument is believed to be  COMMENT
valid to within 1 m horizontally; vertical accuracy         COMMENT
should be no worse than 3-times this value.                 COMMENT
                                                            COMMENT
Revised Rinex header created by UCSD GPS archive for        COMMENT
GSAC on 06-Apr-1999 (1999:096) 01:34:41 GMT                 COMMENT
For assistance contact dagnew@ucsd.edu or hjohnson@ucsd.edu COMMENT
                                                            COMMENT
SAN PEDRO HILLS 1936                                        MARKER NAME
UNKNOWN OBSERVER LOS ANGELES COUNTY                         OBSERVER / AGENCY
428 TRIMBLE 4000 SST FIRMWARE UNKNOWN                       REC # / TYPE / VERS
28 TR 4000SST L1/L2 GEO                                     ANT # / TYPE
 -2519754.0000 -4669432.0000  3527797.0000                  APPROX POSITION XYZ
        1.2901        0.0000        0.0000                  ANTENNA: DELTA H/E/N
     1     2     0                                          WAVELENGTH FACT L1/2
     3    C1    L1    L2                                    # / TYPES OF OBSERV
    15                                                      INTERVAL
  1991     3     1     4    14   45.000000                  TIME OF FIRST OBS
  1991     3     1     5    38   15.000000                  TIME OF LAST OBS
     0                                                      # OF SATELLITES
                                                            END OF HEADER
 91  3  1  4 14 45.0000000  0  5 12  2  6 15 13
  24325138.344    -5801064.052 4  -3642050.038 2
  21614947.727   -28849827.526 7    292873.971 8
  20609097.641   -36239342.341 7      4574.718 8
  24546186.883   -12716756.820 4   1268093.060 3
  20220776.164   -33513391.458 7 -21313045.785 6
 91  3  1  4 15 14.9990000  0  5 12  2  6 15 13
  24301024.065    -5927800.844 5  -3740805.630 3
  21617178.339   -28838100.316 7    302012.083 8
  20609659.253   -36236392.325 7      6873.449 7
  24553741.995   -12677046.439 4   1299036.278 4
  20211818.964   -33560467.301 7 -21349728.193 7
 91  3  1  4 15 29.9990000  0  5 12  2  6 15 13
  24288959.722    -5991169.141 4  -3790183.332 3
  21618305.847   -28832165.455 7    306636.661 8
  20609981.105   -36234718.368 7      8177.844 8
  24557553.058   -12657028.251 4   1314634.899 3
  20207379.308   -33583793.462 7 -21367904.398 6
 91  3  1  4 15 44.9990000  0  5 12  2  6 15 13
  24276903.050    -6054534.685 4  -3839558.872 2
  21619446.308   -28826182.506 7    311298.709 8
  20610324.167   -36232910.791 7      9586.359 8
  24561384.456   -12636901.028 5   1330318.477 2
  20202966.901   -33606977.211 7 -21385969.628 6
 91  3  1  4 15 59.9990000  0  5 12  2  6 15 13
  24264847.370    -6117899.130 5  -3888933.581 2
  21620595.831   -28820153.066 7    315996.984 8
  20610690.940   -36230971.327 7     11097.642 7
  24565235.308   -12616667.201 5   1346085.137 3
  20198582.886   -33630020.716 7 -21403925.573 7
 91  3  1  4 16 14.9990000  0  5 12  2  6 15 13
  24252786.120    -6181259.539 4  -3938305.178 4
  21621749.784   -28814074.362 7    320733.646 8
  20611089.573   -36228897.258 7     12713.807 7
  24569108.542   -12596324.352 5   1361936.728 3
  20194224.425   -33652921.136 7 -21421770.026 7
 91  3  1  4 16 29.9990000  0  5 12  2  6 15 13
  24240732.222    -6244620.914 5  -3987677.501 2
  21622917.292   -28807951.787 7    325504.494 8
  20611505.948   -36226693.954 7     14430.679 8
  24572994.151   -12575877.858 4   1377869.102 2
  20189893.026   -33675683.950 7 -21439507.258 6
 91  3  1  4 16 44.9990000  0  5 12  2  6 15 13
  24228675.784    -6307972.994 5  -4037042.583 2
  21624088.565   -28801775.174 7    330317.450 8
  20611952.886   -36224351.381 7     16256.068 7
  24576909.144   -12555318.130 5   1393889.718 4
  20185589.339   -33698299.103 7 -21457129.424 6
 91  3  1  4 16 59.9990000  0  5 12  2  6 15 13
  24216622.925    -6371326.429 5  -4086408.721 2
  21625275.909   -28795555.382 7    335164.049 8
  20612421.097   -36221880.148 7     18181.715 8
  24580838.308   -12534656.207 5   1409989.967 2
  20181311.714   -33720777.603 7 -21474645.107 6
 91  3  1  4 17 14.9990000  0  5 12  2  6 15 13
  24204558.980    -6434686.150 5  -4135779.770 4
  21626463.480   -28789297.546 7    340040.301 8
  20612918.042   -36219285.505 7     20203.521 8
  24584792.480   -12513897.608 5   1426165.539 2
  20177059.253   -33743124.766 7 -21492058.451 6
 91  3  1  4 17 29.9990000  0  5 12  2  6 15 13
  24192505.503    -6498044.796 5  -4185149.968 2
  21627663.800   -28782994.432 7    344951.828 8
  20613435.097   -36216560.405 7     22326.985 8
  24588757.237   -12493035.350 5   1442421.883 3
  20172832.948   -33765333.597 7 -21509364.010 6
 91  3  1  4 17 44.9990000  0  5 12  2  6 15 13
  24180451.065    -6561398.912 5  -4234516.613 2
  21628874.370   -28776642.875 7    349901.101 8
  20613976.940   -36213701.482 7     24554.722 8
  24592753.105   -12472066.590 5   1458761.193 3
  20168634.440   -33787400.774 7 -21526559.178 6
 91  3  1  4 17 59.9990000  0  5 12  2  6 15 13
  24168395.487    -6624751.399 5  -4283882.046 2
  21630091.698   -28770246.016 7    354885.671 8
  20614547.769   -36210711.771 7     26884.372 8
  24596763.394   -12450994.781 5   1475180.828 2
  20164459.589   -33809329.565 7 -21543646.526 7
 91  3  1  4 18 14.9990000  0  5 12  2  6 15 13
  24156341.784    -6688097.827 5  -4333242.738 1
  21631317.339   -28763799.698 7    359908.791 8
  20615142.667   -36207587.359 7     29318.986 8
  24600791.261   -12429816.119 5   1491683.749 2
  20160315.909   -33831116.080 7 -21560623.003 6
 91  3  1  4 18 29.9990000  0  5 12  2  6 15 13
  24144288.190    -6751443.020 5  -4382602.457 3
  21632551.761   -28757308.949 7    364966.532 8
  20615763.167   -36204333.163 7     31854.734 8
  24604834.495   -12408535.739 5   1508265.909 2
  20156195.542   -33852765.284 7 -21577492.487 7
 91  3  1  4 18 44.9990000  0  5 12  2  6 15 13
  24132233.230    -6814784.358 5  -4431959.211 2
  21633794.440   -28750771.175 7    370060.904 8
  20616408.089   -36200946.646 7     34493.580 8
  24608909.058   -12387151.712 5   1524928.835 4
  20152102.628   -33874274.927 7 -21594253.226 6
 91  3  1  4 18 59.9990000  0  5 12  2  6 15 13
  24120181.112    -6878119.137 5  -4481310.817 2
  21635047.276   -28744184.067 7    375193.724 8
  20617077.409   -36197425.452 7     37237.374 8
  24612999.136   -12365661.757 5   1541674.312 2
  20148036.394   -33895642.614 7 -21610903.342 6
 91  3  1  4 19 14.9990000  0  5 12  2  6 15 13
  24108134.448    -6941435.029 5  -4530647.708 3
  21636314.276   -28737535.493 7    380374.438 8
  20617774.597   -36193757.508 7     40095.515 8
  24617115.636   -12344054.365 5   1558511.270 1
  20143998.808   -33916856.605 7 -21627433.706 7
 91  3  1  4 19 29.9990000  0  5 12  2  6 15 13
  24096088.362    -7004734.824 5  -4579972.090 3
  21637590.362   -28730828.394 7    385600.758 8
  20618498.542   -36189945.805 7     43065.681 8
  24621245.792   -12322332.585 5   1575437.405 4
  20139991.151   -33937919.925 7 -21643846.650 6
 91  3  1  4 19 44.9990000  0  5 12  2  6 15 13
  24084042.800    -7068029.829 5  -4629292.709 2
  21638877.597   -28724074.385 7    390863.632 8
  20619248.308   -36186002.058 7     46138.736 8
  24625397.292   -12300508.510 5   1592443.203 2
  20136009.394   -33958844.258 7 -21660151.303 6
 91  3  1  4 19 59.9990000  0  5 12  2  6 15 13
  24071994.987    -7131322.807 5  -4678611.748 2
  21640172.073   -28717276.327 7    396160.832 8
  20620023.378   -36181929.038 7     49312.516 8
  24629568.862   -12278584.784 5   1609526.678 2
  20132052.839   -33979632.832 7 -21676350.167 6
 91  3  1  4 20 14.9990000  0  5 12  2  6 15 13
  24059949.144    -7194636.017 5  -4727946.597 3
  21641465.667   -28710456.834 7    401474.733 8
  20620821.847   -36177749.196 7     52569.545 8
  24633753.558   -12256584.847 5   1626669.542 3
  20128118.511   -34000308.202 7 -21692460.817 6
 91  3  1  4 20 29.9990000  0  5 12  2  6 15 13
  24047902.073    -7257943.621 5  -4777277.059 2
  21642774.714   -28703590.218 7    406825.353 8
  20621639.862   -36173436.966 7     55929.733 8
  24637959.386   -12234483.135 5   1643891.705 3
  20124210.690   -34020844.784 7 -21708463.324 6
 91  3  1  4 20 44.9990000  0  5 12  2  6 15 13
  24035853.128    -7321242.993 5  -4826601.101 2
  21644091.097   -28696674.115 7    412214.533 8
  20622485.253   -36168990.088 7     59394.840 8
  24642182.855   -12212277.629 5   1661194.744 1
  20120329.940   -34041240.501 7 -21724356.061 6
 91  3  1  4 20 59.9990000  0  5 12  2  6 15 13
  24023808.745    -7384535.497 5  -4875919.784 2
  21645414.019   -28689710.181 7    417640.980 8
  20623358.761   -36164410.203 7     62963.585 8
  24646426.792   -12189970.252 5   1678577.178 2
  20116474.362   -34061496.953 7 -21740140.285 6
 91  3  1  4 21 14.9990000  0  5 12  2  6 15 13
  24011768.495    -7447823.926 5  -4925235.296 3
  21646750.315   -28682701.444 7    423102.340 8
  20624254.269   -36159700.274 7     66633.664 8
  24650698.472   -12167564.474 5   1696036.270 1
  20112645.886   -34081617.374 7 -21755818.506 7
 91  3  1  4 21 29.9990000  0  5 12  2  6 15 13
  23999725.823    -7511103.941 5  -4974544.267 1
  21648090.683   -28675643.632 7    428601.943 8
  20625177.300   -36154856.446 7     70408.076 8
  24654977.628   -12145056.292 5   1713575.146 1
  20108843.175   -34101597.913 7 -21771387.737 6
 91  3  1  4 21 44.9990000  0  5 12  2  6 15 13
  23987682.878    -7574376.295 5  -5023847.250 2
  21649444.159   -28668537.805 7    434138.955 8
  20626124.245   -36149879.312 7     74286.362 8
  24659283.784   -12122447.200 5   1731192.668 3
  20105068.511   -34121439.752 7 -21786848.881 6
 91  3  1  4 21 59.9990000  0  5 12  2  6 15 13
  23975646.995    -7637644.226 5  -5073146.788 3
  21650807.214   -28661387.253 7    439710.821 8
  20627093.698   -36144772.422 7     78265.759 8
  24663598.792   -12099740.599 4   1748886.198 3
  20101318.730   -34141146.107 7 -21802204.455 6
 91  3  1  4 22 14.9990000  0  5 12  2  6 15 13
  23963608.183    -7700901.411 5  -5122437.982 2
  21652177.019   -28654186.003 7    445322.195 8
  20628093.417   -36139529.904 7     82350.842 8
  24667939.128   -12076930.886 5   1766660.044 2
  20097595.034   -34160711.162 7 -21817449.928 6
 91  3  1  4 22 29.9990000  0  5 12  2  6 15 13
  23951573.331    -7764148.102 5  -5171720.970 3
  21653555.323   -28646934.794 7    450972.501 8
  20629118.058   -36134152.321 7     86541.172 8
  24672300.433   -12054019.113 5   1784513.444 3
  20093898.620   -34180135.763 7 -21832585.954 6
 91  3  1  4 22 44.9990000  0  5 12  2  6 15 13
  23939536.886    -7827389.349 5  -5220999.721 3
  21654942.894   -28639638.707 7    456657.773 8
  20630164.761   -36128644.954 7     90832.630 8
  24676678.761   -12031010.772 4   1802442.077 4
  20090228.300   -34199425.296 7 -21847616.733 7
 91  3  1  4 22 59.9990000  0  5 12  2  6 15 13
  23927508.581    -7890618.237 5  -5270268.839 4
  21656342.323   -28632290.982 7    462383.283 8
  20631236.730   -36123001.125 7     95230.423 8
  24681079.745   -12007899.327 5   1820451.063 3
  20086584.901   -34218573.348 7 -21862537.265 7
 91  3  1  4 23 14.9990000  0  5 12  2  6 15 13
  23915471.901    -7953841.648 5  -5319533.687 5
  21657749.190   -28624898.772 7    468143.457 8
  20632336.097   -36117227.712 7     99729.188 8
  24685490.089   -11984692.224 4   1838534.576 2
  20082965.722   -34237586.774 7 -21877352.894 6
 91  3  1  4 23 29.9990000  0  5 12  2  6 15 13
  23903442.917    -8017059.498 5  -5368794.220 4
  21659165.003   -28617462.310 7    473938.111 8
  20633459.237   -36111325.090 7    104328.637 8
  24689929.151   -11961390.148 5   1856692.092 2
  20079372.698   -34256466.049 7 -21892063.990 7
 91  3  1  4 23 44.9990000  0  5 12  2  6 15 13
  23891417.526    -8080268.184 5  -5418047.597 4
  21660588.839   -28609978.052 7    479770.008 8
  20634607.730   -36105289.897 7    109031.389 8
  24694380.089   -11937989.785 4   1874926.208 2
  20075806.644   -34275208.148 7 -21906668.196 6
 91  3  1  4 23 59.9990000  0  5 12  2  6 15 13
  23879390.784    -8143456.222 5  -5467284.895 4
  21662024.183   -28602434.688 7    485647.968 8
  20635786.355   -36099111.008 7    113846.106 8
  24698857.440   -11914480.796 3   1893244.963 2
  20072269.401   -34293801.710 7 -21921156.655 7
 91  3  1  4 24 14.9990000  0  5 12  2  6 15 13
  23867370.394    -8206630.982 5  -5516511.844 3
  21663468.636   -28594839.958 7    491565.943 7
  20636987.628   -36092796.052 7    118766.857 8
  24703345.581   -11890870.660 4   1911642.511 3
  20068756.940   -34312254.572 7 -21935535.484 6
 91  3  1  4 24 29.9990000  0  5 12  2  6 15 13
  23855345.011    -8269807.475 5  -5565740.145 4
  21664921.136   -28587209.191 7    497512.004 7
  20638210.792   -36086360.094 7    123781.890 8
  24707855.870   -11867175.196 3   1930106.575 4
  20065270.026   -34330582.100 7 -21949816.648 6
 91  3  1  4 24 44.9990000  0  5 12  2  6 15 13
  23843327.245    -8332970.784 5  -5614958.193 5
  21666384.675   -28579527.435 7    503497.794 7
  20639460.308   -36079788.713 7    128902.451 8
  24712386.495   -11843380.069 3   1948648.296 3
  20061808.534   -34348769.785 7 -21963988.847 6
 91  3  1  4 24 59.9990000  0  5 12  2  6 15 13
  23831309.737    -8396127.924 5  -5664171.439 5
  21667852.487   -28571802.038 7    509517.591 7
  20640737.214   -36073089.127 7    134122.911 8
  24716929.933   -11819492.377 3   1967262.136 4
  20058373.222   -34366825.212 7 -21978057.981 6
 91  3  1  4 25 14.9990000  0  5 12  2  6 15 13
  23819293.573    -8459273.322 5  -5713375.526 5
  21669331.612   -28564027.739 7    515575.498 7
  20642036.862   -36066255.958 7    139447.459 8
  24721492.050   -11795507.211 3   1985951.935 2
  20054964.058   -34384742.986 7 -21992019.854 7
 91  3  1  4 25 29.9990000  0  5 12  2  6 15 13
  23807279.886    -8522410.434 5  -5762573.153 3
  21670821.769   -28556208.365 7    521668.527 7
  20643360.667   -36059293.129 7    144873.042 8
  24726075.526   -11771428.947 3   2004714.257 3
  20051578.636   -34402527.127 7 -22005877.602 6
 91  3  1  4 25 44.9990000  0  5 12  2  6 15 13
  23795268.136    -8585534.024 5  -5811760.242 3
  21672317.331   -28548338.621 7    527800.805 7
  20644713.245   -36052195.541 7    150403.633 8
  24730677.159   -11747252.767 3   2023552.915 5
  20048220.886   -34420172.981 7 -22019627.594 6
 91  3  1  4 25 59.9990000  0  5 12  2  6 15 13
  23783260.573    -8648632.704 5  -5860927.916 3
  21673827.065   -28540407.360 7    533981.022 7
  20646090.534   -36044952.339 7    156047.690 8
  24735302.690   -11722967.655 3   2042476.431 4
  20044891.480   -34437669.548 7 -22033261.259 6
 91  3  1  4 26 14.9990000  0  5 12  2  6 15 13
  23771249.300    -8711737.203 5  -5910100.126 5
  21675341.690   -28532445.708 7    540184.915 7
  20647489.206   -36037594.458 7    161781.106 8
  24739938.105   -11698605.144 3   2061460.260 5
  20041584.026   -34455047.751 7 -22046802.688 6
 91  3  1  4 26 29.9990000  0  5 12  2  6 15 13
  23759245.823    -8774828.039 5  -5959261.691 4
  21676865.105   -28524434.419 7    546427.483 7
  20648918.980   -36030102.483 7    167619.012 8
  24744585.605   -11674146.147 3   2080519.288 3
  20038302.933   -34472288.430 7 -22060236.962 7
 91  3  1  4 26 44.9990000  0  5 12  2  6 15 13
  23747241.964    -8837903.910 5  -6008411.611 5
  21678400.823   -28516372.415 7    552709.571 7
  20650367.112   -36022475.681 7    173561.977 8
  24749263.519   -11649590.187 3   2099653.837 4
  20035049.284   -34489390.865 7 -22073563.503 6
 91  3  1  4 26 59.9990000  0  5 12  2  6 15 13
  23735241.144    -8900966.384 5  -6057551.058 4
  21679946.331   -28508261.504 7    559029.771 7
  20651841.894   -36014715.788 7    179608.649 7
  24753953.487   -11624939.044 3   2118862.554 3
  20031820.058   -34506356.957 7 -22086783.813 6
 91  3  1  4 27 14.9990000  0  5 12  2  6 15 13
  23723242.401    -8964016.681 5  -6106681.037 4
  21681498.159   -28500103.283 7    565386.835 7
  20653345.175   -36006824.276 7    185757.883 7
  24758655.409   -11600194.886 3   2138143.779 4
  20028618.269   -34523188.386 7 -22099899.189 6
 91  3  1  4 27 29.9990000  0  5 12  2  6 15 13
  23711248.347    -9027053.072 5  -6155800.193 4
  21683058.355   -28491896.028 7    571782.107 7
  20654874.261   -35998799.776 7    192010.742 8
  24763385.019   -11575356.449 3   2157498.459 5
  20025439.925   -34539883.946 7 -22112908.697 6
 91  3  1  4 27 44.9990000  0  5 12  2  6 15 13
  23699256.706    -9090073.483 5  -6204906.890 3
  21684630.323   -28483637.994 7
  20656426.565   -35990640.584 7
  24768130.925   -11550422.466 3
  20022289.300   -34556441.861 7 -22125810.946 6
 91  3  1  4 27 59.9990000  0  4 12  2  6 13
  23687265.612    -9153079.167 5  -6254002.092 4
  21686210.503   -28475330.766 7
  20658005.292   -35982348.114 7
  20019164.745   -34572863.883 7 -22138607.302 6
 91  3  1  4 28 14.9990000  0  5 12  2  6 15 13
  23675278.034    -9216073.401 5  -6303088.402 4
  21687799.612   -28466977.671 7    591199.026 7
  20659607.511   -35973925.931 7    211392.959 8
  24777673.448        8381.81713
  20016064.925   -34589153.680 7 -22151300.624 6
 91  3  1  4 28 29.9990000  0  5 12  2  6 15 13
  23663291.550    -9279054.134 5  -6352164.183 4
  21689399.456   -28458577.091 7    597744.948 7
  20661233.464   -35965372.322 7    218058.108 8
  24782470.019       33591.713 3
  20012990.636   -34605309.858 7 -22163889.837 6
 91  3  1  4 28 44.9990000  0  5 12  2  6 15 13
  23651312.636    -9342018.621 5  -6401227.290 3
  21691009.089   -28450126.498 7    604329.827 7
  20662886.519   -35956685.013 7    224827.445 8
  24787291.019       58895.320 3
  20009941.769   -34621329.927 7 -22176372.981 6
 91  3  1  4 28 59.9990000  0  5 12  2  6 15 13
  23639334.886    -9404965.454 5  -6450276.645 5
  21692625.190   -28441624.637 7    610954.666 7
  20664565.386   -35947862.688 7    231701.991 8
  24792120.276       84293.535 3      6604.87614
  20006919.253   -34637212.455 7 -22188748.959 6
 91  3  1  4 29 14.9990000  0  5 12  2  6 15 13
  23627361.050    -9467891.502 5  -6499309.824 4
  21694251.972   -28433068.625 7    617621.697 7
  20666271.980   -35938902.558 7    238683.915 8
  24796970.956      109788.813 3     26471.402 3
  20003924.526   -34652955.187 7 -22201016.000 6
 91  3  1  4 29 29.9990000  0  5 12  2  6 15 13
  23615387.190    -9530799.330 5  -6548328.776 4
  21695892.714   -28424461.290 7    624328.715 7
  20668002.995   -35929807.610 7    245770.893 8
  24801844.237      135378.318 4     46411.358 2
  20000953.784   -34668560.959 7 -22213176.324 6
 91  3  1  4 29 44.9990000  0  5 12  2  6 15 13
  23603419.980    -9593693.984 5  -6597337.477 5
  21697538.862   -28415807.838 7    631071.676 7
  20669755.909   -35920583.070 7    252958.850 8
  24806728.253      161056.002 3     66420.004 4
  19998009.065   -34684035.644 7 -22225234.497 6
 91  3  1  4 29 59.9990000  0  5 12  2  6 15 13
  23591454.237    -9656573.153 5  -6646334.115 5
  21699191.042   -28407106.132 7    637852.236 7
  20671539.237   -35911227.114 7    260249.203 8
  24811632.409      186823.705 4     86498.814 4
  19995090.308   -34699377.078 7 -22237188.844 6
 91  3  1  4 30 14.9990000  0  5 12  2  6 15 13
  23579488.206    -9719436.529 5  -6695318.441 4
  21700860.589   -28398356.120 7    644670.434 7
  20673341.995   -35901739.643 7    267642.040 7
  24816550.190      212681.383 4    106647.748 3
  19992194.784   -34714585.509 7 -22249039.551 6
 91  3  1  4 30 29.9990000  0  5 12  2  6 15 13
  23567531.315    -9782286.603 5  -6744292.394 5
  21702532.550   -28389560.605 7    651524.091 7
  20675174.073   -35892123.482 7    275135.157 8
  24821485.940      238625.791 3    126864.240 2
  19989326.167   -34729663.781 7 -22260788.835 6
 91  3  1  4 30 44.9990000  0  5 12  2  6 15 13
  23555574.386    -9845108.501 5  -6793244.408 5
  21704220.526   -28380704.995 7    658424.577 7
  20677028.214   -35882364.041 7    282739.920 8
  24826445.605      264671.311 4    147159.526 2
  19986484.628   -34744597.336 7 -22272425.348 6
 91  3  1  4 30 59.9990000  0  5 12  2  6 15 13
  23543625.605    -9907914.954 5  -6842184.361 5
  21705912.042   -28371802.283 7    665361.756 7
  20678912.347   -35872474.328 7    290446.191 8
  24831421.526      290804.544 5    167523.151 4
  19983667.839   -34759399.438 7 -22283959.436 6
 91  3  1  4 31 14.9990000  0  5 12  2  6 15 13
  23531673.495    -9970709.752 5  -6891115.260 5
  21707612.573   -28362856.488 7    672332.509 7
  20680819.815   -35862458.706 7    298250.577 7
  24836404.183      317021.168 4    187951.795 2
  19980875.612   -34774074.302 7 -22295394.379 6
 91  3  1  4 31 29.9990000  0  5 12  2  6 15 13
  23519731.464   -10033485.986 5  -6940031.681 5
  21709325.214   -28353861.017 7    679341.975 7
  20682747.425   -35852310.368 7    306158.377 8
  24841408.792      343327.409 3    208450.258 2
  19978108.261   -34788615.507 7 -22306725.165 6
 91  3  1  4 31 44.9990000  0  5 12  2  6 15 13
  23507785.644   -10096243.895 5  -6988933.814 5
  21711047.901   -28344816.286 7    686389.829 7
  20684703.276   -35842030.014 7    314169.040 7
  24846430.917      369722.357 4    229017.859 2
  19975366.151   -34803023.696 7 -22317952.303 6
 91  3  1  4 31 59.9990000  0  5 12  2  6 15 13
  23495847.644   -10158980.418 5  -7037819.280 5
  21712778.495   -28335719.612 7    693478.151 7
  20686686.620   -35831615.012 7    322284.627 7
  24851477.605      396208.398 5    249656.396 2
  19972650.089   -34817296.495 7 -22329073.942 6
 91  3  1  4 32 14.9990000  0  5 12  2  6 15 13
  23483912.245   -10221701.393 5  -7086692.653 5
  21714516.784   -28326576.871 7    700602.375 7
  20688693.151   -35821071.325 7    330500.486 7
  24856520.206      422779.271 3    270361.127 2
  19969959.144   -34831439.964 7 -22340094.806 6
 91  3  1  4 32 29.9990000  0  4 12  2  6 13
  23471980.933   -10284400.645 5  -7135549.081 5
  21716267.448   -28317382.301 7    707766.981 7
  20690726.175   -35810393.195 7    338821.112 7
  19967293.417   -34845448.421 7 -22351010.467 6
 91  3  1  4 32 44.9990000  0  4 12  2  6 13
  23460052.284   -10347081.793 5  -7184391.416 5
  21718026.276   -28308139.849 7    714968.899 7
  20692783.112   -35799584.630 7    347243.373 7
  19964652.964   -34859326.024 7 -22361824.163 6
 91  3  1  4 32 59.9990000  0  4 12  2  6 13
  23448128.901   -10409745.820 5  -7233220.406 5
  21719794.370   -28298850.686 7    722207.211 7
  20694863.831   -35788646.830 7    355766.343 7
  19962035.964   -34873074.098 7 -22372536.928 6
 91  3  1  4 33 14.9990000  0  4 12  2  6 13
  23436205.276   -10472389.092 5  -7282033.215 5
  21721571.401   -28289511.367 7    729484.610 7
  20696967.784   -35777576.705 6    364392.419 8
  19959445.331   -34886689.717 7 -22383146.480 6
 91  3  1  4 33 29.9990000  0  4 12  2  6 13
  23424292.565   -10535010.142 5  -7330828.723 4
  21723360.776   -28280120.717 7    736802.010 7
  20699101.730   -35766372.944 6    373122.624 7
  19956879.331   -34900171.996 7 -22393652.130 6
 91  3  1  4 33 44.9990000  0  4 12  2  6 13
  23412381.222   -10597609.183 5  -7379607.071 5
  21725153.511   -28270679.223 7    744159.023 7
  20701261.534   -35755036.324 6    381956.357 7
  19954339.425   -34913521.404 7 -22404054.244 6
 91  3  1  4 33 59.9990000  0  4 12  2  6 13
  23400469.034   -10660184.390 5  -7428366.854 5
  21726960.355   -28261185.163 7    751557.003 7
  20703442.237   -35743565.278 6    390894.841 7
  19951824.175   -34926736.687 7 -22414351.845 6
 91  3  1  4 34 14.9990000  0  4 12  2  6 13
  23388567.401   -10722735.639 5  -7477107.960 5
  21728778.925   -28251638.708 7    758995.810 7
  20705649.698   -35731959.974 6    399937.933 7
  19949335.276   -34939817.856 7 -22424544.938 6
 91  3  1  4 34 29.9990000  0  4 12  2  6 13
  23376670.386   -10785247.427 5  -7525818.323 5
  21730606.628   -28242024.649 7    766487.296 7
  20707888.956   -35720205.241 6    409097.478 7
  19946874.339   -34952750.018 7 -22434621.924 6
 91  3  1  4 34 44.9990000  0  4 12  2  6 13
  23364780.425   -10847741.805 5  -7574515.125 5
  21732446.175   -28232365.334 7    774014.047 7
  20710149.628   -35708323.493 6    418355.981 7
  19944437.401   -34965555.866 7 -22444600.487 6
 91  3  1  4 34 59.9990000  0  4 12  2  6 13
  23352889.683   -10910227.514 5  -7623205.182 3
  21734291.511   -28222669.745 7    781569.063 7
  20712432.222   -35696323.695 6    427706.482 7
  19942022.894   -34978244.439 7 -22454487.668 6
 91  3  1  4 35 14.9990000  0  4 12  2  6 13
  23341002.347   -10972691.213 5  -7671878.076 4
  21736145.308   -28212924.738 7    789162.586 7
  20714739.183   -35684193.076 6    437158.910 7
  19939633.480   -34990803.024 7 -22464273.556 7
 91  3  1  4 35 29.9990000  0  4 12  2  6 13
  23329120.542   -11035134.446 5  -7720535.022 4
  21738006.261   -28203132.032 7    796793.274 7
  20717074.761   -35671933.513 6    446711.819 7
  19937267.972   -35003233.479 7 -22473959.600 6
 91  3  1  4 35 44.9990000  0  4 12  2  6 13
  23317242.894   -11097556.390 5  -7769175.374 5
  21739882.331   -28193291.020 7    804461.606 7
  20719428.159   -35659544.487 6    456365.608 7
  19934926.620   -35015535.607 7 -22483545.651 6
 91  3  1  4 35 59.9990000  0  4 12  2  6 13
  23305368.550   -11159952.155 5  -7817795.346 4
  21741764.761   -28183397.219 7    812171.069 7
  20721814.597   -35647021.466 7    466123.812 7
  19932610.159   -35027704.785 7 -22493028.109 6
 91  3  1  4 36 14.9990000  0  4 12  2  6 13
  23293498.909   -11222324.577 5  -7866397.115 5
  21743656.761   -28173453.723 7    819919.258 7
  20724223.175   -35634367.822 7    475983.797 7
  19930318.855   -35039744.525 7 -22502409.700 6
 91  3  1  4 36 29.9990000  0  4 12  2  6 13
  23281634.089   -11284669.278 5  -7914977.285 5
  21745556.800   -28163456.484 7    827709.322 7
  20726656.690   -35621579.487 6    485948.735 7
  19928053.456   -35051650.991 7 -22511687.442 7
 91  3  1  4 36 44.9990000  0  4 12  2  6 13
  23269774.972   -11346992.981 5  -7963541.102 5
  21747468.081   -28153412.543 7    835535.780 7
  20729112.394   -35608663.479 6    496013.156 7
  19925812.769   -35063431.311 7 -22520866.890 6
 91  3  1  4 36 59.9990000  0  4 12  2  6 13
  23257918.995   -11409289.722 5  -8012083.911 5
  21749392.355   -28143316.137 7    843403.121 7
  20731596.644   -35595614.211 6    506181.420 7
  19923595.987   -35075080.089 7 -22529943.839 6
 91  3  1  4 37 14.9990000  0  4 12  2  6 13
  23246070.058   -11471560.753 5  -8060606.682 5
  21751321.136   -28133168.835 7    851310.114 7
  20734103.792   -35582433.335 6    516452.233 7
  19921404.495   -35086598.932 8 -22538919.539 6
 91  3  1  4 37 29.9990000  0  4 12  2  6 13
  23234224.394   -11533805.452 5  -8109108.943 5
  21753261.667   -28122970.347 7    859256.997 7
  20736636.519   -35569120.707 6    526825.715 7
  19919237.034   -35097987.741 8 -22547793.916 7
 91  3  1  4 37 44.9990000  0  4 12  2  6 13
  23222385.440   -11596027.989 5  -8157593.925 5
  21755212.128   -28112725.035 7    867240.365 7
  20739195.409   -35555680.714 6    537298.438 7
  19917092.815   -35109251.331 8 -22556570.720 6
 91  3  1  4 37 59.9990000  0  4 12  2  6 13
  23210547.815   -11658223.547 5  -8206057.898 5
  21757170.894   -28102428.310 7    875263.793 7
  20741777.901   -35542109.203 6    547873.641 7
  19914975.011   -35120385.157 8 -22565246.410 6
 91  3  1  4 38 14.9990000  0  4 12  2  6 13
  23198719.909   -11720388.528 5  -8254498.042 5
  21759139.089   -28092076.731 7    883329.964 7
  20744387.456   -35528402.741 6    558553.999 7
  19912880.612   -35131386.264 8 -22573818.682 6
 91  3  1  4 38 29.9990000  0  4 12  2  6 13
  23186893.550   -11782525.320 5  -8302916.221 5
  21761121.401   -28081673.121 7    891436.687 7
  20747019.167   -35514564.083 7    569337.368 7
  19910812.534   -35142257.713 8 -22582289.925 6
 91  3  1  4 38 44.9990000  0  4 12  2  6 13
  23175075.347   -11844638.354 5  -8351315.884 5
  21763111.636   -28071222.098 7    899580.346 7
  20749676.511   -35500598.062 6    580219.984 7
  19908766.378   -35153004.276 8 -22590663.851 7
 91  3  1  4 38 59.9990000  0  4 12  2  6 13
  23163262.378   -11906722.785 5  -8399693.263 5
  21765107.909   -28060718.909 7    907764.655 7
  20752361.644   -35486500.168 7    591205.357 8
  19906746.159   -35163621.464 8 -22598936.965 7
 91  3  1  4 39 14.9990000  0  4 12  2  6 13
  23151450.714   -11968778.279 5  -8448048.103 4
  21767116.472   -28050163.416 7    915989.717 7
  20755068.175   -35472270.482 7    602293.424 7
  19904751.456   -35174109.552 8 -22607109.484 7
 91  3  1  4 39 29.9990000  0  4 12  2  6 13
  23139644.964   -12030810.050 5  -8496384.438 5
  21769135.659   -28039561.272 7    924251.134 7
  20757799.847   -35457914.649 7    613479.786 7
  19902778.151   -35184474.212 8 -22615185.826 6
 91  3  1  4 39 44.9990000  0  4 12  2  6 13
  23127846.855   -12092814.529 5  -8544699.533 5
  21771161.355   -28028909.145 7    932551.495 7
  20760556.065   -35443429.472 7    624766.937 7
  19900830.214   -35194712.450 8 -22623163.657 7
 91  3  1  4 39 59.9990000  0  4 12  2  6 13
  23116055.331   -12154786.908 5  -8592989.594 5
  21773199.315   -28018202.631 7    940894.236 7
  20763339.440   -35428810.686 7    636158.195 7
  19898906.276   -35204819.973 8 -22631039.634 7
 91  3  1  4 40 14.9990000  0  4 12  2  6 13
  23104269.730   -12216714.487 5  -8641244.762 5
  21775249.612   -28007429.276 7    949289.056 7
  20766147.323   -35414045.739 7    647663.347 7
  19897010.761   -35214784.484 8 -22638804.171 7
 91  3  1  4 40 29.9990000  0  4 12  2  6 13
  23092493.089   -12278603.250 5  -8689469.686 5
  21777309.269   -27996595.559 6    957730.910 7
  20768985.737   -35399141.356 7    659277.145 7
  19895140.159   -35224612.569 8 -22646462.402 7
 91  3  1  4 40 44.9990000  0  4 12  2  6 13
  23080721.972   -12340464.009 5  -8737672.778 5
  21779381.917   -27985712.252 7    966211.407 7
  20771843.112   -35384108.527 6    670991.035 7
  19893293.714   -35234315.536 8 -22654023.138 7
 91  3  1  4 40 59.9990000  0  4 12  2  6 13
  23068953.073   -12402310.651 5  -8785864.877 5
  21781460.261   -27974793.474 7    974719.547 7
  20774725.925   -35368961.585 6    682793.843 7
  19891468.948   -35243907.859 8 -22661497.656 7
 91  3  1  4 41 14.9990000  0  4 12  2  6 13
  23057190.956   -12464118.358 6  -8834026.652 5
  21783547.792   -27963815.067 7    983274.146 7
  20777635.815   -35353676.253 7    694704.490 7
  19889668.706   -35253365.287 8 -22668867.065 7
 91  3  1  4 41 29.9990000  0  4 12  2  6 13
  23045433.815   -12525902.927 5  -8882170.368 5
  21785644.487   -27952792.923 7    991862.831 7
  20780569.831   -35338268.606 7    706710.447 7
  19887890.456   -35262704.176 8 -22676144.108 7
 91  3  1  4 41 44.9990000  0  4 12  2  6 13
  23033680.558   -12587668.490 6  -8930299.297 5
  21787750.550   -27941731.249 7   1000482.315 7
  20783523.042   -35322743.160 6    718808.202 7
  19886136.737   -35271928.868 8 -22683332.162 7
 91  3  1  4 41 59.9990000  0  4 12  2  6 13
  23021931.995   -12649404.483 6  -8978405.183 5
  21789866.433   -27930619.853 7   1009140.548 7
  20786503.128   -35307089.858 6    731005.578 7
  19884404.292   -35281029.573 8 -22690423.604 7
 91  3  1  4 42 14.9980000  0  4 12  2  6 13
  23010193.842   -12711103.712 6  -9026482.418 5
  21791988.311   -27919456.821 6   1017839.011 7
  20789504.217   -35291307.041 6    743303.874 7
  19882696.256   -35290003.033 8 -22697415.894 7
 91  3  1  4 42 29.9980000  0  4 12  2  6 13
  22998455.615   -12772777.278 6  -9074539.658 5
  21794120.740   -27908243.636 6   1026576.560 7
  20792533.545   -35275395.857 7    755702.196 7
  19881012.529   -35298853.989 8 -22704312.726 7
 91  3  1  4 42 44.9980000  0  4 12  2  6 13
  22986726.178   -12834418.549 6  -9122571.732 5
  21796266.022   -27896978.993 6   1035354.207 7
  20795585.248   -35259355.335 7    768201.306 7
  19879353.022   -35307580.011 8 -22711112.200 7
 91  3  1  4 42 59.9980000  0  4 12  2  6 13
  22975000.514   -12896027.368 6  -9170578.525 5
  21798420.295   -27885662.889 6   1044171.954 7
  20798662.389   -35243185.842 7    780800.906 7
  19877715.397   -35316181.295 8 -22717814.491 7
 91  3  1  4 43 14.9980000  0  4 12  2  6 13
  22963282.772   -12957606.529 6  -9218562.201 5
  21800584.240   -27874298.349 6   1053027.439 7
  20801761.342   -35226890.439 6    793498.619 7
  19876100.959   -35324661.021 8 -22724422.052 7
 91  3  1  4 43 29.9980000  0  4 12  2  6 13
  22951572.584   -13019147.731 6  -9266516.306 5
  21802757.311   -27862877.302 6   1061926.953 7
  20804889.123   -35210461.248 7    806300.585 7
  19874512.256   -35333011.482 8 -22730928.887 7
 91  3  1  4 43 44.9980000  0  4 12  2  6 13
  22939868.357   -13080655.797 6  -9314444.585 5
  21804938.217   -27851404.980 6   1070866.428 7
  20808040.795   -35193903.483 6    819202.728 7
  19872947.240   -35341238.414 8 -22737339.465 7
 91  3  1  4 43 59.9980000  0  4 12  2  6 13
  22928168.584   -13142130.065 6  -9362346.528 5
  21807133.225   -27839881.007 6   1079846.152 7
  20811215.436   -35177216.885 7    832205.275 7
  19871405.764   -35349341.172 8 -22743653.282 7
 91  3  1  4 44 14.9980000  0  4 12  2  6 13
  22916477.006   -13203570.845 6  -9410222.376 5
  21809335.584   -27828305.904 6   1088865.713 7
  20814414.357   -35160402.200 7    845307.621 7
  19869887.178   -35357320.618 8 -22749871.021 7
 91  3  1  4 44 29.9980000  0  4 12  2  6 13
  22904793.029   -13264979.606 6  -9458073.274 5
  21811548.662   -27816681.549 6   1097923.659 7
  20817639.545   -35143461.360 7    858508.272 7
  19868391.240   -35365178.934 8 -22755994.363 7
 91  3  1  4 44 44.9980000  0  4 12  2  6 13
  22893112.568   -13326353.607 6  -9505897.086 5
  21813770.279   -27805005.485 6   1107021.891 7
  20820886.068   -35126392.117 6    871808.983 7
  19866919.662   -35372913.715 8 -22762021.447 7
 91  3  1  4 44 59.9980000  0  4 12  2  6 13
  22881439.654   -13387693.661 6  -9553694.449 5
  21816001.037   -27793278.682 6   1116159.657 7
  20824158.990   -35109195.599 6    885208.869 7
  19865470.975   -35380526.324 8 -22767953.328 7
 91  3  1  4 45 14.9980000  0  5  9 12  2  6 13
  20189994.467           -.45613
  22869773.787   -13448997.625 6  -9601463.690 5
  21818241.545   -27781499.052 6   1125338.590 7
  20827456.045   -35091870.104 6    898709.253 7
  19864045.936   -35388015.191 8 -22773788.794 6
 91  3  1  4 45 29.9980000  0  4 12  2  6 13
  22858113.459   -13510268.988 6  -9649207.525 5
  21820494.975   -27769670.474 6   1134555.660 7
  20830775.131   -35074419.702 6    912306.972 7
  19862643.670   -35395384.514 8 -22779531.108 6
 91  3  1  4 45 44.9980000  0  4 12  2  6 13
  22846460.568   -13571505.380 6  -9696924.119 5
  21822752.482   -27757790.998 6   1143812.400 7
  20834123.092   -35056842.442 6    926003.530 7
  19861264.186   -35402632.576 8 -22785178.935 7
 91  3  1  4 45 59.9980000  0  4 12  2  6 13
  22834817.147   -13632702.391 6  -9744610.024 5
  21825024.272   -27745856.602 6   1153111.934 7
  20837491.467   -35039134.502 6    939801.917 7
  19859906.928   -35409755.408 8 -22790729.173 6
 91  3  1  4 46 14.9980000  0  4 12  2  6 13
  22823178.850   -13693859.704 6  -9792264.986 5
  21827306.654   -27733867.177 6   1162454.345 7
  20840885.701   -35021295.886 6    953702.133 7
  19858577.225   -35416753.410 8 -22796182.147 7
 91  3  1  4 46 29.9980000  0  5  9 12  2  6 13
  20162777.537       -9427.944 2
  22811548.420   -13754982.548 6  -9839893.092 5
  21829598.701   -27721828.350 6   1171835.246 7
  20844303.381   -35003332.218 6    967699.786 7
  19857268.467   -35423632.136 8 -22801542.173 7
 91  3  1  4 46 44.9980000  0  5  9 12  2  6 13
  20157416.342      -37618.319 3
  22799922.303   -13816066.755 6  -9887491.104 5
  21831899.732   -27709736.343 6   1181257.594 7
  20847746.725   -34985239.926 6    981797.672 7
  19855982.232   -35430388.125 8 -22806806.567 7
 91  3  1  4 46 59.9980000  0  5  9 12  2  6 13
  20152079.615      -65672.132 2     -7275.12316
  22788305.193   -13877113.193 6  -9935059.669 5
  21834211.428   -27697592.211 6   1190720.556 7
  20851213.287   -34967020.255 6    995994.815 7
  19854719.654   -35437022.614 8 -22811976.276 7
 91  3  1  4 47 14.9980000  0  5  9 12  2  6 13
  20146769.115      -93582.452 3    -29023.518 6
  22776696.897   -13938117.139 6  -9982595.139 5
  21836533.107   -27685391.382 6   1200227.697 7
  20854704.959   -34948668.915 6   1010294.549 7
  19853481.545   -35443531.460 8 -22817048.094 6
 91  3  1  4 47 29.9980000  0  5  9 12  2  6 13
  20141481.732     -121355.974 3    -50665.278 6
  22765095.357   -13999082.562 6 -10030100.588 5
  21838863.334   -27673138.008 6   1209775.781 7
  20858221.725   -34930190.246 6   1024693.512 7
  19852266.045   -35449919.295 8 -22822025.617 7
 91  3  1  4 47 44.9980000  0  5  9 12  2  6 13
  20136222.303     -148994.247 3    -72201.792 6
  22753501.022   -14060012.668 6 -10077578.511 5
  21841204.061   -27660835.791 6   1219361.917 6
  20861761.959   -34911587.956 6   1039188.795 7
  19851071.959   -35456189.890 8 -22826911.777 6
 91  3  1  4 47 59.9980000  0  5  9 12  2  6 13
  20130988.764     -176494.389 5    -93630.528 5
  22741913.982   -14120904.521 6 -10125026.619 5
  21843552.857   -27648482.034 6   1228988.220 7
  20865326.381   -34892859.649 6   1053782.281 7
  19849901.404   -35462340.807 8 -22831704.682 6
 91  3  1  4 48 14.9980000  0  5  9 12  2  6 13
  20125782.811     -203858.249 3   -114953.154 5
  22730335.779   -14181757.829 6 -10172444.707 5
  21845913.811   -27636076.901 6   1238654.562 6
  20868913.592   -34874005.386 6   1068473.907 7
  19848753.670   -35468372.402 8 -22836404.611 7
 91  3  1  4 48 29.9980000  0  5  9 12  2  6 13
  20120600.451     -231083.727 4   -136167.964 7
  22718762.154   -14242573.388 6 -10219833.385 5
  21848285.670   -27623621.272 6   1248360.241 6
  20872527.295   -34855026.456 6   1083262.679 7
  19847628.529   -35474285.987 8 -22841012.584 6
 91  3  1  4 48 44.9980000  0  5  9 12  2  6 13
  20115445.818     -258174.320 3   -157277.564 5
  22707194.412   -14303352.698 6 -10267193.801 5
  21850666.857   -27611116.862 6   1258103.943 7
  20876159.967   -34835924.746 6   1098147.123 7
  19846526.295   -35480083.535 8 -22845530.141 7
 91  3  1  4 48 59.9980000  0  5  9 12  2  6 13
  20110317.420     -285127.423 4   -178280.166 6
  22695637.873   -14364092.942 6 -10314523.781 5
  21853054.647   -27598561.303 6   1267887.495 6
  20879819.209   -34816697.945 6   1113129.040 7
  19845443.881   -35485762.911 8 -22849955.619 7
 91  3  1  4 49 14.9980000  0  5  9 12  2  6 13
  20105216.725     -311934.985 5   -199169.276 6
  22684089.037   -14424787.853 6 -10361818.435 5
  21855453.725   -27585948.419 6   1277715.706 6
  20883504.498   -34797340.360 6   1128212.865 7
  19844387.506   -35491318.268 8 -22854284.452 7
 91  3  1  4 49 29.9980000  0  5  9 12  2  6 13
  20100141.279     -338605.457 5   -219951.539 6
  22672544.318   -14485443.235 6 -10409082.292 5
  21857864.014   -27573284.491 6   1287583.708 6
  20887209.842   -34777858.165 6   1143393.796 7
  19843352.607   -35496756.063 8 -22858521.680 7
 91  3  1  4 49 44.9980000  0  5  9 12  2  6 13
  20095091.201     -365136.540 4   -240625.283 6
  22661010.084   -14546058.568 6 -10456314.951 5
  21860283.451   -27560569.260 6   1297491.680 6
  20890942.295   -34758251.422 6   1158671.766 7
  19842338.795   -35502076.438 7 -22862667.410 6
 91  3  1  4 49 59.9980000  0  5  9 12  2  6 13
  20090069.897     -391528.613 5   -261190.609 6
  22649484.022   -14606633.779 6 -10503516.337 5
  21862715.162   -27547803.013 6   1307439.403 6
  20894696.436   -34738520.463 6   1174046.537 7
  19841350.607   -35507279.906 7 -22866722.053 6
 91  3  1  4 50 14.9980000  0  5  9 12  2  6 13
  20085076.342     -417780.494 4   -281646.753 6
  22637963.178   -14667166.105 6 -10550684.309 5
  21865151.842   -27534983.305 6   1317428.788 6
  20898476.475   -34718663.085 6   1189519.811 7
  19840381.693   -35512364.151 7 -22870683.790 7
 91  3  1  4 50 29.9980000  0  5  9 12  2  6 13
  20080106.701     -443888.651 5   -301990.907 7
  22626451.811   -14727654.508 6 -10597818.043 5
  21867603.943   -27522109.377 6   1327460.420 6
  20902276.647   -34698678.657 6   1205092.089 7
  19839437.334   -35517328.850 7 -22874552.366 6
 91  3  1  4 50 44.9980000  0  5  9 12  2  6 13
  20075166.545     -469860.018 5   -322228.399 6
  22614949.779   -14788103.865 6 -10644921.365 5
  21870061.756   -27509186.407 6   1337530.257 6
  20906103.232   -34678572.488 6   1220759.221 7
  19838515.037   -35522179.501 7 -22878332.086 7
 91  3  1  4 50 59.9980000  0  5  9 12  2  6 13
  20070250.615     -495690.177 5   -342355.975 6
  22603453.834   -14848509.928 6 -10691990.946 5
  21872530.928   -27496210.140 6   1347641.632 6
  20909954.131   -34658340.769 6   1236524.195 7
  19837614.373   -35526912.073 7 -22882019.787 6
 91  3  1  4 51 14.9980000  0  5  9 12  2  6 13
  20065361.256     -521378.713 5   -362373.113 6
  22591968.428   -14908873.652 6 -10739027.539 5
  21875008.772   -27483181.966 6   1357793.464 6
  20913827.662   -34637985.014 6   1252385.818 7
  19836735.936   -35531528.292 7 -22885616.830 6
 91  3  1  4 51 29.9980000  0  5  9 12  2  6 13
  20060499.076     -546925.598 5   -382279.874 6
  22580489.326   -14969192.423 6 -10786029.113 5
  21877499.420   -27470099.788 6   1367987.362 6
  20917724.514   -34617503.132 6   1268345.719 7
  19835879.154   -35536026.160 7 -22889121.647 7
 91  3  1  4 51 44.9980000  0  5  9 12  2  6 13
  20055667.131     -572332.920 5   -402077.941 7
  22569020.701   -15029470.456 6 -10832998.929 6
  21879998.826   -27456967.987 6   1378219.931 6
  20921644.850   -34596899.769 6   1284400.281 7
  19835044.865   -35540410.324 7 -22892537.863 7
 91  3  1  4 51 59.9980000  0  5  9 12  2  6 13
  20050857.686     -597597.400 6   -421764.633 7
  22557557.647   -15089703.732 6 -10879933.876 5
  21882507.232   -27443782.899 6   1388494.028 6
  20925589.686   -34576171.318 6   1300552.312 7
  19834234.037   -35544677.302 7 -22895862.771 7
 91  3  1  4 52 14.9980000  0  5  9 12  2  6 13
  20046077.443     -622718.618 5   -441339.747 7
  22546103.779   -15149890.282 6 -10926832.413 5
  21885027.982   -27430543.026 6   1398810.806 6
  20929558.475   -34555316.554 6   1316802.772 7
  19833442.959   -35548825.907 7 -22899095.441 6
 91  3  1  4 52 29.9980000  0  5  9 12  2  6 13
  20041325.881     -647695.206 6   -460802.158 7
  22534660.272   -15210030.918 6 -10973695.175 6
  21887557.053   -27417249.366 6   1409169.503 6
  20933549.936   -34534336.625 6   1333150.764 7
  19832676.162   -35552857.510 7 -22902236.933 7
 91  3  1  4 52 44.9980000  0  5  9 12  2  6 13
  20036597.397     -672533.338 5   -480156.620 6
  22523221.318   -15270129.832 6 -11020525.422 6
  21890095.975   -27403906.347 6   1419566.658 6
  20937567.006   -34513236.299 6   1349592.570 7
  19831931.334   -35556776.765 7 -22905290.884 6
 91  3  1  4 52 59.9980000  0  5  9 12  2  6 13
  20031900.451     -697229.535 5   -499400.574 7
  22511795.131   -15330183.978 6 -11067320.791 5
  21892646.107   -27390511.357 6   1430004.315 6
  20941604.490   -34492012.933 6   1366130.251 7
  19831207.225   -35560581.347 7 -22908255.484 7
 91  3  1  4 53 14.9980000  0  5  9 12  2  6 13
  20027226.154     -721783.090 6   -518533.314 7
  22500375.717   -15390193.729 6 -11114081.566 6
  21895204.170   -27377065.080 6   1440481.927 6
  20945665.389   -34470667.416 6   1382763.115 7
  19830504.873   -35564272.227 7 -22911131.481 7
 91  3  1  4 53 29.9980000  0  5  9 12  2  6 13
  20022582.811     -746194.485 6   -537555.284 6
  22488963.162   -15450157.345 6 -11160806.403 6
  21897771.857   -27363565.869 6   1451000.793 6
  20949752.428   -34449198.471 6   1399492.162 7
  19829823.920   -35567848.144 7 -22913917.896 7
 91  3  1  4 53 44.9980000  0  5  9 12  2  6 13
  20017961.803     -770465.868 6   -556468.196 7
  22477561.873   -15510078.723 6 -11207498.320 6
  21900350.865   -27350017.910 6   1461557.640 6
  20953860.584   -34427610.487 6   1416313.966 7
  19829164.756   -35571313.671 7 -22916618.293 7
 91  3  1  4 53 59.9980000  0  5  9 12  2  6 13
  20013373.529     -794587.917 6   -575264.683 7
  22466169.881   -15569947.788 6 -11254149.477 6
  21902940.428   -27336411.452 6   1472160.069 6
  20957992.889   -34405893.784 6   1433236.058 7
  19828527.459   -35574659.395 7 -22919225.341 7
 91  3  1  4 54 14.9980000  0  5  9 12  2  6 13
  20008809.467     -818565.541 6   -593948.684 7
  22454786.006   -15629768.351 6 -11300762.834 6
  21905538.857   -27322750.677 6   1482804.821 6
  20962149.115   -34384052.900 6   1450254.924 7
  19827913.834   -35577889.705 7 -22921742.451 7
 91  3  1  4 54 29.9980000  0  5  9 12  2  6 13
  20004274.147     -842399.511 6   -612520.736 7
  22443410.639   -15689543.055 6 -11347340.467 6
  21908147.936   -27309038.566 6   1493489.576 6
  20966328.998   -34362090.896 6   1467368.162 7
  19827319.451   -35581007.769 7 -22924172.100 7
 91  3  1  4 54 44.9980000  0  5  9 12  2  6 13
  19999767.592     -866086.202 6   -630977.991 6
  22432046.115   -15749266.234 6 -11393877.937 6
  21910769.092   -27295269.904 6   1504218.401 6
  20970532.162   -34340002.576 6   1484579.830 7
  19826748.498   -35584008.224 7 -22926510.102 7
 91  3  1  4 54 59.9980000  0  5  9 12  2  6 13
  19995286.686     -889629.753 6   -649323.769 7
  22420690.936   -15808942.777 6 -11440379.084 6
  21913397.662   -27281449.780 6   1514987.327 6
  20974757.350   -34317793.303 6   1501885.747 7
  19826199.045   -35586896.512 7 -22928760.702 7
 91  3  1  4 55 14.9980000  0  5  9 12  2  6 13
  19990835.709     -913027.042 6   -667555.527 7
  22409342.389   -15868570.198 6 -11486841.940 6
  21916038.732   -27267575.752 6   1525798.260 6
  20979007.818   -34295461.088 6   1519287.466 7
  19825672.412   -35589671.121 7 -22930922.727 7
 91  3  1  4 55 29.9980000  0  5  9 12  2  6 13
  19986409.647     -936280.078 6   -685674.893 7
  22398005.475   -15928148.518 6 -11533266.548 6
  21918691.389   -27253648.268 6   1536650.844 6
  20983281.311   -34273006.517 6   1536784.532 7
  19825165.451   -35592332.796 7 -22932996.751 7
 91  3  1  4 55 44.9980000  0  5  9 12  2  6 13
  19982014.147     -959388.032 6   -703681.235 8
  22386680.053   -15987678.640 6 -11579653.596 6
  21921350.193   -27239668.830 6   1547543.905 6
  20987576.350   -34250430.977 6   1554375.857 7
  19824680.045   -35594883.279 7 -22934984.130 7
 91  3  1  4 55 59.9980000  0  5  9 12  2  6 13
  19977644.975     -982347.771 6   -721572.034 7
  22375360.068   -16047156.307 6 -11625999.773 6
  21924019.428   -27225633.313 6   1558480.655 6
  20991897.522   -34227730.829 6   1572064.277 7
  19824216.014   -35597318.403 7 -22936881.622 7
 91  3  1  4 56 14.9980000  0  5  9 12  2  6 13
  19973301.467    -1005166.814 6   -739353.240 8
  22364050.693   -16106588.313 6 -11672310.366 6
  21926701.170   -27211548.798 6   1569455.603 6
  20996237.045   -34204913.296 6   1589844.161 7
  19823773.897   -35599645.365 7 -22938694.827 7
 91  3  1  4 56 29.9980000  0  5  9 12  2  6 13
  19968986.842    -1027845.955 6   -757025.426 7
  22352748.451   -16165977.198 6 -11718587.357 6
  21929389.998   -27197417.991 6   1580466.617 6
  21000601.764   -34181981.341 6   1607713.205 7
  19823349.873   -35601867.481 7 -22940426.335 7
 91  3  1  4 56 44.9980000  0  5  9 12  2  6 13
  19964698.037    -1050380.330 6   -774584.782 7
  22341457.342   -16225316.181 6 -11764825.468 6
  21932088.311   -27183234.484 6   1591518.697 6
  21004989.443   -34158928.744 6   1625676.261 7
  19822949.365   -35603978.662 7 -22942071.402 7
 91  3  1  4 56 59.9980000  0  5  9 12  2  6 13
  19960438.748    -1072766.496 6   -792028.696 8
  22330174.342   -16284602.266 6 -11811022.360 6
  21934798.592   -27168995.719 6   1602613.844 6
  21009399.029   -34135753.177 6   1643735.142 7
  19822569.912   -35605976.659 7 -22943628.269 7
 91  3  1  4 57 14.9980000  0  5  9 12  2  6 13
  19956207.748    -1095001.451 7   -809354.739 8
  22318903.076   -16343833.090 6 -11857176.187 6
  21937518.881   -27154699.599 6   1613753.673 6
  21013833.451   -34112452.678 6   1661891.367 7
  19822209.584   -35607859.462 7 -22945095.383 7
 91  3  1  4 57 29.9980000  0  5  9 12  2  6 13
  19952004.162    -1117088.246 6   -826565.353 7
  22307642.209   -16403009.876 6 -11903287.904 6
  21940250.647   -27140347.567 6   1624937.058 6
  21018290.404   -34089028.880 6   1680143.670 7
  19821873.037   -35609628.897 7 -22946474.152 7
 91  3  1  4 57 44.9980000  0  5  9 12  2  6 13
  19947829.045    -1139027.609 6   -843661.090 8
  22296390.975   -16462134.963 6 -11949359.346 6
  21942993.147   -27125942.386 6   1636161.866 6
  21022770.607   -34065484.815 6   1698489.682 7
  19821557.459   -35611287.913 7 -22947766.884 7
 91  3  1  4 57 59.9980000  0  5  9 12  2  6 13
  19943682.014    -1160826.664 6   -860647.467 7
  22285147.975   -16521214.548 6 -11995395.329 6
  21945741.436   -27111490.522 6   1647423.063 6
  21027271.709   -34041827.234 6   1716924.152 7
  19821262.022   -35612843.349 7 -22948978.903 7
 91  3  1  4 58 14.9980000  0  5  9 12  2  6 13
  19939561.959    -1182475.520 7   -877516.843 8
  22273916.061   -16580237.852 6 -12041387.452 6
  21948501.951   -27096981.458 6   1658728.816 6
  21031799.311   -34018045.746 6   1735455.174 7
  19820986.779   -35614285.105 7 -22950102.342 7
 91  3  1  4 58 29.9980000  0  5  9 12  2  6 13
  19935470.506    -1203976.971 7   -894271.345 7
  22262693.506   -16639209.282 6 -12087339.156 6
  21951270.631   -27082420.072 6   1670075.346 6
  21036345.764   -33994145.357 6   1754078.845 7
  19820733.623   -35615618.293 7 -22951141.181 7
 91  3  1  4 58 44.9980000  0  5  9 12  2  6 13
  19931407.248    -1225329.714 6   -910909.957 7
  22251482.717   -16698125.552 6 -12133247.875 6
  21954054.678   -27067803.465 6   1681464.903 6
  21040919.756   -33970123.390 6   1772797.253 7
  19820502.639   -35616840.244 7 -22952093.342 7
 91  3  1  4 58 59.9980000  0  5  9 12  2  6 13
  19927371.850    -1246538.624 7   -927436.521 8
  22240279.803   -16756992.337 6 -12179118.037 6
  21956846.287   -27053137.564 6   1692892.871 6
  21045511.467   -33945985.974 6   1791605.624 7
  19820288.498   -35617957.136 7 -22952963.640 7
 91  3  1  4 59 14.9980000  0  5  9 12  2  6 13
  19923363.326    -1267599.036 7   -943847.338 8
  22229091.568   -16815805.234 6 -12224946.204 6
  21959644.365   -27038418.062 6   1704362.612 6
  21050125.498   -33921729.127 6   1810507.048 7
  19820097.154   -35618965.103 7 -22953749.059 7
 91  3  1  4 59 29.9980000  0  5  9 12  2  6 13
  19919383.701    -1288516.377 6   -960146.696 8
  22217907.029   -16874567.995 6 -12270735.312 6
  21962456.248   -27023649.217 6   1715870.791 6
  21054764.467   -33897357.376 6   1829498.012 7
  19819924.482   -35619868.494 7 -22954452.994 7
 91  3  1  4 59 44.9980000  0  5  9 12  2  6 13
  19915432.701    -1309279.481 7   -976325.868 8
  22206736.365   -16933271.011 6 -12316477.864 6
  21965277.248   -27008821.855 6   1727424.575 6
  21059423.701   -33872861.504 6   1848585.691 7
  19819774.795   -35620658.369 7 -22955068.473 7
 91  3  1  4 59 59.9980000  0  5  9 12  2  6 13
  19911509.592    -1329891.881 7   -992387.587 7
  22195577.123   -16991916.786 6 -12362175.817 6
  21968110.779   -26993938.582 6   1739021.923 6
  21064110.428   -33848244.545 6   1867767.722 7
  19819646.272   -35621337.802 7 -22955597.895 7
 91  3  1  5  0 14.9980000  0  5  9 12  2  6 13
  19907615.756    -1350360.711 7  -1008337.460 8
  22184426.373   -17050511.803 6 -12407834.209 6
  21970951.193   -26979006.383 6   1750657.394 6
  21068816.654   -33823513.604 6   1887038.573 7
  19819536.639   -35621914.132 7 -22956046.977 7
 91  3  1  5  0 29.9980000  0  5  9 12  2  6 13
  19903748.834    -1370680.925 7  -1024171.517 8
  22173286.397   -17109052.461 6 -12453450.249 6
  21973803.834   -26964021.843 6   1762333.651 6
  21073544.639   -33798665.468 6   1906400.749 7
  19819446.209   -35622384.173 7 -22956413.233 7
 91  3  1  5  0 44.9980000  0  5  9 12  2  6 13
  19899911.272    -1390851.489 7  -1039888.954 8
  22162156.764   -17167535.689 6 -12499021.535 6
  21976663.725   -26948982.171 6   1774052.875 6
  21078296.561   -33773697.753 6   1925856.097 7
  19819376.240   -35622745.392 7 -22956694.689 7
 91  3  1  5  0 59.9980000  0  5  9 12  2  6 13
  19896100.193    -1410871.713 7  -1055489.263 8
  22151037.092   -17225961.779 6 -12544548.301 6
  21979537.897   -26933888.088 6   1785814.487 6
  21083069.623   -33748611.305 6   1945403.971 7
  19819331.475   -35622998.671 7 -22956892.044 7
 91  3  1  5  1 14.9980000  0  5  9 12  2  6 13
  19892319.420    -1430741.864 7  -1070972.611 8
  22139931.131   -17284330.940 6 -12590030.710 6
  21982419.279   -26918740.004 6   1797618.181 6
  21087866.600   -33723406.796 6   1965043.834 6
  19819302.014   -35623144.985 7
 91  3  1  5  1 29.9980000  0  5  9 12  2  6 13
  19888565.732    -1450466.315 7  -1086342.441 8
  22128835.553   -17342646.149 6 -12635471.075 6
  21985312.147   -26903541.332 6   1809461.290 6
  21092683.701   -33698087.786 6   1984772.922 7
  19819294.225   -35623187.878 7
 91  3  1  5  1 44.9980000  0  5  9 12  2  6 13
  19884841.576    -1470038.697 7  -1101593.776 8
  22117749.076   -17400902.543 6 -12680865.612 6
  21988215.365   -26888287.292 6   1821347.550 6
  21097526.014   -33672649.826 6   2004594.697 7
  19819304.381   -35623123.010 7
 91  3  1  5  1 59.9980000  0  5  9 12  2  6 13
  19881145.123    -1489464.876 7  -1116731.172 7
  22106674.209   -17459104.762 6 -12726217.927 6
  21991128.068   -26872983.063 6   1833272.917 6
  21102388.115   -33647098.199 6   2024505.045 7
  19819335.787   -35622955.796 7
 91  3  1  5  2 14.9980000  0  5  9 12  2  6 13
  19877478.131    -1508735.690 7  -1131747.522 8
  22095609.357   -17517243.370 6 -12771520.682 6
  21994051.553   -26857619.601 6   1845244.439 6
  21107272.678   -33621424.015 6   2044510.897 7
  19819390.623   -35622677.294 7
 91  3  1  5  2 29.9980000  0  5  9 12  2  6 13
  19873839.834    -1527857.660 7  -1146647.873 7
  22084557.147   -17575325.691 6 -12816779.579 6
  21996983.178   -26842204.452 6   1857256.238 6
  21112179.842   -33595635.185 6   2064606.074 7
  19819463.568   -35622295.618 7
 91  3  1  5  2 44.9980000  0  5  9 12  2  6 13
  19870230.506    -1546826.055 7  -1161428.563 8
  22073514.881   -17633345.447 6 -12861989.730 6
  21999928.123   -26826731.674 6   1869312.937 6
  21117109.693   -33569726.013 6   2084795.035 6
  19819555.693   -35621805.168 7       263.50217
 91  3  1  5  2 59.9980000  0  5  9 12  2  6 13
  19866649.654    -1565643.488 7  -1176091.635 8
  22062485.076   -17691306.078 6 -12907153.801 6
  22002883.295   -26811205.113 6   1881411.545 6
  21122061.740   -33543700.449 6   2105074.690 6
  19819668.764   -35621209.871 7       727.377 7
 91  3  1  5  3 14.9980000  0  5  9 12  2  6 13
  19863097.295    -1584311.748 7  -1190638.444 8
  22051467.225   -17749209.253 6 -12952273.108 6
  22005846.475   -26795626.770 6   1893550.500 6
  21127035.561   -33517560.658 6   2125443.349 7
  19819802.326   -35620511.885 7      1271.271 7
 91  3  1  5  3 29.9980000  0  5  9 12  2  6 13
  19859572.623    -1602827.599 7  -1205066.517 8
  22040461.490   -17807050.382 6 -12997344.067 6
  22008822.053   -26779992.434 6   1905733.091 6
  21132033.912   -33491302.688 6   2145904.092 6
  19819955.740   -35619707.423 7      1898.128 7
 91  3  1  5  3 44.9980000  0  5  9 12  2  6 13
  19856080.162    -1621192.027 7  -1219376.582 8
  22029465.592   -17864831.831 6 -13042368.518 6
  22011809.873   -26764304.580 6   1917957.378 6
  21137051.936   -33464929.465 6   2166454.646 7
  19820129.342   -35618799.469 7      2605.635 7
 91  3  1  5  3 59.9980000  0  5  9 12  2  6 13
  19852614.037    -1639402.956 7  -1233567.037 7
  22018481.061   -17922550.236 6 -13087343.853 6
  22014802.975   -26748560.287 6   1930225.640 6
  21142093.912   -33438438.270 6   2187097.128 6
  19820321.998   -35617785.268 7      3395.924 7
 91  3  1  5  4 14.9980000  0  5  9 12  2  6 13
  19849178.186    -1657460.252 7  -1247637.786 8
  22007509.420   -17980205.311 6 -13132269.834 6
  22017810.365   -26732759.599 6   1942537.852 6
  21147157.662   -33411829.252 6   2207831.410 6
  19820534.240   -35616665.128 7      4268.772 7
 91  3  1  5  4 29.9980000  0  5  9 12  2  6 13
  19845770.951    -1675363.063 7  -1261588.151 7
  21996550.912   -18037796.925 6 -13177146.367 6
  22020829.178   -26716902.687 6   1954893.882 6
  21152243.107   -33385102.939 6   2228657.098 6
  19820767.725   -35615439.519 7      5223.795 7
 91  3  1  5  4 44.9980000  0  5  9 12  2  6 13
  19842392.709    -1693113.646 7  -1275419.901 8
  21985604.740   -18095325.878 6 -13221974.075 6
  22023856.904   -26700990.656 6   1967292.851 6
  21157351.772   -33358260.588 6   2249573.210 6
  19821020.084   -35614110.041 7      6259.760 7
 91  3  1  5  4 59.9980000  0  5  9 12  2  6 13
  19839045.959    -1710709.512 7  -1289131.092 8
  21974669.240   -18152790.367 6 -13266751.551 6
  22026895.092   -26685022.035 6   1979735.927 6
  21162481.826   -33331301.015 6   2270580.657 6
  19821293.607   -35612675.515 7      7377.576 7
 91  3  1  5  5 14.9980000  0  5  9 12  2  6 13
  19835724.670    -1728152.228 7  -1302722.936 8
  21963746.342   -18210191.829 6 -13311479.917 6
  22029946.193   -26668998.600 6   1992221.710 6
  21167634.850   -33304226.274 6   2291677.855 6
  19821585.842   -35611137.976 7      8575.664 7
 91  3  1  5  5 29.9980000  0  5  9 12  2  6 13
  19832436.186    -1745442.180 7  -1316195.756 8
  21952834.490   -18267529.266 6 -13356158.392 6
  22033005.139   -26652919.838 6   2004750.610 6
  21172807.865   -33277035.911 6   2312865.135 6
  19821898.857   -35609497.133 7      9854.252 7
 91  3  1  5  5 44.9980000  0  5  9 12  2  6 13
  19829175.186    -1762582.144 7  -1329551.699 8
  21941933.670   -18324806.897 6 -13400790.270 6
  22036070.553   -26636790.267 6   2017319.098 6
  21178003.217   -33249734.708 6   2334138.785 6
  19822228.475   -35607757.899 7     11209.503 7
 91  3  1  5  5 59.9980000  0  5  9 12  2  6 13
  19825941.537    -1779571.330 7  -1342790.145 7
  21931046.170   -18382022.501 6 -13445373.811 6
  22039150.592   -26620607.806 6   2029928.805 6
  21183218.139   -33222321.030 6   2355500.081 6
  19822580.318   -35605918.278 7     12642.980 7
 91  3  1  5  6 14.9980000  0  5  9 12  2  6 13
  19822737.490    -1796407.603 7  -1355909.451 7
  21920170.990   -18439174.030 6 -13489907.421 6
  22042244.076   -26604370.779 6   2042581.022 6
  21188457.647   -33194793.341 6   2376950.215 6
  19822948.842   -35603976.885 7     14155.757 7
 91  3  1  5  6 29.9980000  0  5  9 12  2  6 13
  19819563.318    -1813089.095 7  -1368908.147 7
  21909309.529   -18496260.271 6 -13534390.156 6
  22045344.389   -26588078.467 6   2055276.315 6
  21193717.100   -33167151.055 6   2398489.644 6
  19823339.131   -35601933.329 7     15748.146 7
 91  3  1  5  6 44.9980000  0  5  9 12  2  6 13
  19816418.709    -1829616.222 7  -1381786.556 8
  21898457.686   -18553280.109 6 -13578821.154 6
  22048453.287   -26571730.059 6   2068015.323 6
  21199000.232   -33139393.549 6   2420118.859 6
  19823746.467   -35599786.861 7     17420.721 7
 91  3  1  5  6 59.9980000  0  5  9 12  2  6 13
  19813304.803    -1845988.457 7  -1394544.266 7
  21887619.740   -18610233.882 6 -13623200.671 6
  22051574.850   -26555326.093 6   2080797.622 6
  21204304.475   -33111521.697 6   2441837.177 6
  19824174.498   -35597538.514 7     19172.689 7
 91  3  1  5  7 14.9980000  0  5  9 12  2  6 13
  19810218.373    -1862202.811 7  -1407178.951 7
  21876795.865   -18667118.045 6 -13667525.952 6
  22054705.225   -26538863.460 6   2093625.636 6
  21209631.725   -33083532.663 6   2463646.799 6
  19824622.842   -35595185.825 7     21005.959 7
 91  3  1  5  7 29.9980000  0  5  9 12  2  6 13
  19807162.506    -1878263.120 7  -1419693.607 8
  21865983.006   -18723935.393 6 -13711799.152 6
  22057852.592   -26522345.222 6   2106496.974 6
  21214978.647   -33055429.904 6   2485545.042 6
  19825087.920   -35592732.145 7     22917.921 7
 91  3  1  5  7 44.9980000  0  5  9 12  2  6 13
  19804135.967    -1894168.410 7  -1432087.467 7
  21855184.162   -18780686.195 6 -13756020.515 6
  22061006.201   -26505771.926 6   2119411.217 6
  21220347.740   -33027214.204 6   2507531.285 6
  19825575.022   -35590178.405 7     24907.857 7
 91  3  1  5  7 59.9980000  0  5  9 12  2  6 13
  19801138.647    -1909920.921 7  -1444362.279 7
  21844396.928   -18837371.254 6 -13800190.637 6
  22064169.857   -26489144.887 6   2132367.337 6
  21225737.662   -32998886.924 6   2529604.479 6
  19826079.764   -35587526.041 7     26974.638 7
 91  3  1  5  8 14.9980000  0  5  9 12  2  6 13
  19798169.897    -1925517.783 7  -1456515.804 7
  21833621.482   -18893987.755 6 -13844307.343 6
  22067344.342   -26472461.528 6   2145367.349 6
  21231150.717   -32970445.810 6   2551766.363 6
  19826604.553   -35584772.630 7     29120.161 7
 91  3  1  5  8 29.9980000  0  5  9 12  2  6 13
  19795230.522    -1940957.929 7  -1468547.216 7
  21822863.178   -18950535.292 6 -13888370.315 6
  22070529.951   -26455721.847 6   2158411.245 6
  21236583.225   -32941891.020 6   2574016.840 6
  19827147.553   -35581918.382 7     31344.255 7
 91  3  1  5  8 44.9980000  0  5  9 12  2  6 13
  19792322.334    -1956244.140 7  -1480458.678 7
  21812113.436   -19007015.130 6 -13932380.531 6
  22073722.506   -26438927.554 6   2171497.701 6
  21242038.897   -32913224.468 6   2596354.399 6
  19827708.881   -35578965.109 7     33645.520 7
 91  3  1  5  8 59.9980000  0  5  9 12  2  6 13
  19789444.506    -1971372.014 7  -1492246.759 7
  21801380.740   -19063423.694 6 -13976335.210 6
  22076931.318   -26422075.266 6   2184629.347 6
  21247514.857   -32884443.094 6   2618781.430 6
  19828289.272   -35575909.871 7     36026.232 7
 91  3  1  5  9 14.9970000  0  5  9 12  2  6 13
  19786595.821    -1986345.559 7  -1503914.582 7
  21790658.978   -19119761.497 6 -14020234.751 6
  22080149.095   -26405170.491 6   2197801.888 6
  21253014.540   -32855553.626 6   2641292.691 6
  19828888.923   -35572757.978 7     38482.259 7
 91  3  1  5  9 29.9970000  0  5  9 12  2  6 13
  19783775.439    -2001164.824 7  -1515462.187 7
  21779953.056   -19176033.685 6 -14064083.162 6
  22083377.681   -26388209.149 6   2211018.509 6
  21258533.642   -32826550.507 6   2663892.513 6
  19829507.235   -35569507.325 7     41015.246 7
 91  3  1  5  9 44.9970000  0  5  9 12  2  6 13
  19780983.837    -2015828.106 7  -1526888.255 7
  21769256.282   -19232236.235 6 -14107877.309 6
  22086614.946   -26371192.543 6   2224278.196 6
  21264072.540   -32797436.074 6   2686579.073 6
  19830145.540   -35566158.687 7     43624.581 7
 91  3  1  5  9 59.9970000  0  5  9 12  2  6 13
  19778225.243    -2030335.975 7  -1538193.213 7
  21758575.009   -19288368.820 6 -14151616.940 6
  22089865.220   -26354120.635 6   2237580.973 6
  21269634.384   -32768210.503 6   2709352.230 6
  19830801.790   -35562711.954 7     46310.354 7
 91  3  1  5 10 14.9970000  0  5  9 12  2  6 13
  19775494.189    -2044687.664 7  -1549376.475 7
  21747906.095   -19344430.632 6 -14195301.420 6
  22093123.673   -26336993.105 6   2250927.085 6
  21275216.024   -32738873.689 6   2732212.073 6
  19831476.071   -35559167.296 7     49072.426 7
 91  3  1  5 10 29.9970000  0  5  9 12  2  6 13
  19772791.485    -2058882.906 7  -1560437.833 7
  21737249.087   -19400421.532 6 -14238930.649 6
  22096392.454   -26319810.049 6   2264316.475 6
  21280821.704   -32709425.929 6   2755158.367 6
  19832169.009   -35555525.043 7     51910.552 7
 91  3  1  5 10 44.9970000  0  5  9 12  2  6 13
  19770122.360    -2072921.064 7  -1571376.785 7
  21726608.782   -19456340.075 6 -14282503.487 6
  22099675.774   -26302570.296 6   2277750.031 6
  21286445.095   -32679866.415 6   2778191.744 6
  19832880.689   -35551784.361 7     54825.378 7
 91  3  1  5 10 59.9970000  0  5  9 12  2  6 13
  19767478.907    -2086802.324 7  -1582193.483 7
  21715982.845   -19512186.819 6 -14326020.376 6
  22102965.712   -26285274.529 6   2291227.245 6
  21292093.235   -32650196.279 6   2801311.318 6
  19833611.853   -35547946.566 7     57815.876 7
 91  3  1  5 11 14.9970000  0  5  9 12  2  6 13
  19764868.853    -2100527.462 7  -1592888.528 7
  21705369.978   -19567962.000 6 -14369481.510 6
  22106266.696   -26267923.547 6   2304747.480 6
  21297758.720   -32620416.351 6   2824516.446 6
  19834359.251   -35544012.432 7     60881.445 7
 91  3  1  5 11 29.9970000  0  5  9 12  2  6 13
  19762285.665    -2114094.115 7  -1603460.067 7
  21694769.751   -19623662.615 6 -14412884.539 6
  22109578.431   -26250514.736 6   2318312.781 6
  21303447.243   -32590524.309 6   2847808.937 6
  19835127.110   -35539979.649 7     64023.881 7
 91  3  1  5 11 44.9970000  0  5  9 12  2  6 13
  19759733.399    -2127507.042 7  -1613911.833 7
  21684184.517   -19679294.026 6 -14456233.645 6
  22112903.892   -26233053.788 6   2331918.697 6
  21309155.712   -32560526.048 6   2871184.192 6
  19835911.767   -35535854.138 7     67238.574 7
 91  3  1  5 11 59.9970000  0  5  9 12  2  6 13
  19757211.845    -2140766.156 7  -1624243.740 7
  21673609.735   -19734855.039 6 -14499527.896 6
  22116235.509   -26215539.771 6   2345565.975 6
  21314884.274   -32530421.044 6   2894642.626 6
  19836714.485   -35531635.438 7     70525.882 7
 91  3  1  5 12 14.9970000  0  5  9 12  2  6 13
  19754718.290    -2153864.743 7  -1634450.562 7
  21663051.314   -19790339.102 6 -14542762.181 6
  22119578.821   -26197966.555 6   2359259.376 6
  21320635.228   -32500203.306 6   2918188.903 6
  19837536.360   -35527317.584 7     73890.454 7
 91  3  1  5 12 29.9970000  0  5  9 12  2  6 13
  19752257.899    -2166796.267 7  -1644527.207 6
  21652510.103   -19845739.878 6 -14585931.576 6
  22122936.478   -26180327.986 6   2373003.705 6
  21326408.649   -32469866.981 6   2941827.589 6
  19838379.157   -35522894.927 7     77336.692 7
 91  3  1  5 12 44.9970000  0  5  9 12  2  6 13
  19749826.259    -2179576.714 7  -1654486.121 7
  21641981.189   -19901072.273 6 -14629047.679 6
  22126301.696   -26162639.441 6   2386786.979 6
  21332199.673   -32439427.672 6   2965546.514 6
  19839236.314   -35518383.125 7     80852.384 7
 91  3  1  5 12 59.9970000  0  5  9 12  2  6 13
  19747427.423    -2192185.896 7  -1664311.583 7
  21631467.384   -19956316.489 6 -14672095.079 6
  22129682.603   -26144881.374 6   2400624.428 6
  21338015.384   -32408866.178 6   2989360.656 6
  19840115.243   -35513762.897 7     84452.568 7
 91  3  1  5 13 14.9970000  0  5  9 12  2  6 13
  19745052.079    -2204663.345 7  -1674034.401 7
  21620964.329   -20011511.661 6 -14715104.258 6
  22133067.353   -26127093.368 6   2414485.196 6
  21343845.017   -32378222.331 6   3013238.955 6
  19841008.556   -35509073.969 7     88106.286 7
 91  3  1  5 13 29.9970000  0  5  9 12  2  6 13
  19742708.048    -2216982.406 7  -1683633.785 7
  21610476.134   -20066630.346 6 -14758053.842 6
  22136461.595   -26109248.439 6   2428390.323 6
  21349697.837   -32347469.250 6   3037202.384 6
  19841918.603   -35504289.740 7     91834.268 7
 91  3  1  5 13 44.9970000  0  5  9 12  2  6 13
  19740393.415    -2229140.441 7  -1693107.715 7
  21600002.048   -20121670.463 6 -14800942.204 6
  22139870.095   -26091344.680 6   2442341.288 5
  21355572.228   -32316605.429 6   3061252.097 6
  19842847.235   -35499408.820 7     95637.585 7
 91  3  1  5 13 59.9970000  0  5  9 12  2  6 13
  19738110.774    -2241143.346 7  -1702460.753 7
  21589541.978   -20176636.922 6 -14843773.169 6
  22143286.321   -26073387.326 6   2456334.018 6
  21361464.634   -32285636.441 6   3085383.772 6
  19843793.603   -35494436.567 7     99512.073 7
 91  3  1  5 14 14.9970000  0  5  9 12  2  6 13
  19735856.454    -2252989.253 7  -1711691.452 7
  21579097.806   -20231527.900 6 -14886545.320 6
  22146713.634   -26055375.244 6   2470369.393 6
  21367378.345   -32254561.120 6   3109598.292 6
  19844757.564   -35489372.148 7    103458.375 7
 91  3  1  5 14 29.9970000  0  5  9 12  2  6 13
  19733633.142    -2264675.187 7  -1720797.517 6
  21568667.564   -20286340.413 6 -14929256.322 6
  22150152.071   -26037305.330 6   2484449.839 6
  21373312.001   -32223376.987 6   3133897.610 6
  19845738.431   -35484212.918 7    107478.563 7
 91  3  1  5 14 44.9970000  0  5  9 12  2  6 13
  19731439.235    -2276202.251 7  -1729779.765 7
  21558250.407   -20341074.833 6 -14971906.483 6
  22153600.306   -26019178.339 6   2498574.739 5
  21379268.860   -32192084.994 6   3158280.958 6
  19846738.985   -35478959.891 7    111571.836 7
 91  3  1  5 14 59.9970000  0  5  9 12  2  6 13
  19729276.337    -2287571.100 7  -1738638.738 7
  21547848.540   -20395731.854 6 -15014496.328 6
  22157063.548   -26000995.480 6   2512743.202 5
  21385243.712   -32160686.435 6   3182747.359 6
  19847756.064   -35473614.310 7    115737.229 7
 91  3  1  5 15 14.9970000  0  5  9 12  2  6 13
  19727143.532    -2298784.790 7  -1747376.813 7
  21537463.024   -20450314.450 7 -15057028.188 6
  22160531.431   -25982759.918 6   2526952.726 5
  21391237.610   -32129184.848 6   3207294.035 6
  19848790.165   -35468179.833 7    119971.894 7
 91  3  1  5 15 29.9970000  0  5  9 12  2  6 13
  19725038.915    -2309840.341 7  -1755991.648 7
  21527092.478   -20504818.885 7 -15099499.133 6
  22164011.892   -25964468.491 6   2541205.778 6
  21397252.142   -32097577.249 6   3231923.319 6
  19849842.556   -35462653.563 7    124278.080 7
 91  3  1  5 15 44.9970000  0  5  9 12  2  6 13
  19722965.282    -2320742.593 7  -1764487.047 6
  21516732.298   -20559250.251 7 -15141913.145 6
  22167503.220   -25946126.633 6   2555498.121 6
  21403284.954   -32065869.287 6   3256630.804 6
  19850909.048   -35457041.075 7    128651.455 7
 91  3  1  5 15 59.9970000  0  5  9 12  2  6 13
  19720920.665    -2331483.451 7  -1772856.677 7
  21506391.423   -20613599.712 7 -15184263.339 6
  22171003.454   -25927725.824 6   2569836.396 5
  21409339.360   -32034052.807 6   3281422.860 6
  19851995.681   -35451334.221 7    133098.358 7
 91  3  1  5 16 14.9970000  0  5  9 12  2  6 13
  19718907.939    -2342064.699 7  -1781101.935 7
  21496063.001   -20667868.892 7 -15226550.972 6
  22174516.665   -25909268.049 6   2584219.072 6
  21415414.134   -32002130.035 6   3306297.733 6
  19853099.087   -35445535.286 7    137617.012 7
 91  3  1  5 16 29.9970000  0  5  9 12  2  6 13
  19716924.517    -2352487.742 7  -1789223.926 6
  21485752.243   -20722059.375 7 -15268777.292 6
  22178040.017   -25890755.207 6   2598644.645 6
  21421509.001   -31970103.094 6   3331253.776 6
  19854219.196   -35439646.515 7    142205.668 7
 91  3  1  5 16 44.9970000  0  5  9 12  2  6 13
  19714970.134    -2362755.575 7  -1797224.952 7
  21475454.173   -20776172.960 7 -15310943.683 6
  22181572.728   -25872189.561 6   2613111.378 6
  21427624.196   -31937974.549 6   3356288.988 6
  19855358.157   -35433670.440 7    146862.359 7
 91  3  1  5 16 59.9970000  0  5  9 12  2  6 13
  19713045.462    -2372866.899 7  -1805104.036 7
  21465170.712   -20830208.855 7 -15353049.538 6
  22185114.501   -25853570.543 6   2627619.695 5
  21433756.149   -31905744.200 6   3381403.528 6
  19856511.665   -35427606.928 7    151587.171 7
 91  3  1  5 17 14.9970000  0  5  9 12  2  6 13
  19711152.009    -2382818.381 7  -1812858.571 7
  21454903.728   -20884163.128 7 -15395091.792 6
  22188669.306   -25834894.610 6   2642172.358 6
  21439911.454   -31873408.643 6   3406600.053 6
  19857681.524   -35421452.728 7    156382.655 8
 91  3  1  5 17 29.9970000  0  5  9 12  2  6 13
  19709289.392    -2392610.679 7  -1820489.054 7
  21444654.368   -20938036.028 7 -15437070.634 6
  22192233.939   -25816162.308 6   2656768.932 6
  21446083.173   -31840968.823 6   3431877.823 6
  19858870.079   -35415208.574 7    161248.229 8
 91  3  1  5 17 44.9970000  0  5  9 12  2  6 13
  19707456.423    -2402240.847 7  -1827993.214 6
  21434415.853   -20991824.749 7 -15478983.893 6
  22195811.009   -25797371.250 6   2671411.294 6
  21452275.493   -31808422.488 6   3457238.591 6
  19860074.939   -35408872.316 7    166185.571 7
 91  3  1  5 17 59.9970000  0  5  9 12  2  6 13
  19705655.454    -2411713.053 7  -1835374.286 7
  21424196.103   -21045532.949 7 -15520834.393 6
  22199394.298   -25778525.273 6   2686096.452 5
  21458488.673   -31775773.821 6   3482679.109 6
  19861297.712   -35402448.048 7    171191.495 7
 91  3  1  5 18 14.9970000  0  5  9 12  2  6 13
  19703882.782    -2421027.771 7  -1842632.628 7
  21413991.892   -21099160.604 7 -15562622.148 6
  22202994.884   -25759624.809 6   2700824.080 6
  21464721.087   -31743023.568 6   3508198.757 6
  19862536.126   -35395936.690 7    176265.279 8
 91  3  1  5 18 29.9970000  0  5  9 12  2  6 13
  19702138.642    -2430186.367 7  -1849769.342 6
  21403799.939   -21152709.324 7 -15604348.392 6
  22206602.118   -25740671.810 6   2715592.636 6
  21470973.149   -31710173.979 6   3533795.829 6
  19863793.001   -35389340.682 7    181405.034 7
 91  3  1  5 18 44.9970000  0  5  9 12  2  6 13
  19700427.321    -2439184.963 7  -1856781.361 7
  21393627.985   -21206174.389 7 -15646009.447 7
  22210218.290   -25721661.902 6   2730405.541 6
  21477242.189   -31677220.848 6   3559473.585 6
  19865064.657   -35382655.763 7    186614.060 8
 91  3  1  5 18 59.9970000  0  5  9 12  2  6 13
  19698744.485    -2448024.463 7  -1863669.414 7
  21383469.954   -21259556.615 7 -15687605.947 7
  22213846.095   -25702596.574 6   2745261.636 6
  21483532.517   -31644165.796 6   3585230.741 6
  19866352.314   -35375883.333 7    191891.274 7
 91  3  1  5 19 14.9970000  0  5  9 12  2  6 13
  19697093.126    -2456704.257 7  -1870433.031 7
  21373326.204   -21312855.131 7 -15729137.220 7
  22217483.314   -25683475.034 6   2760161.518 6
  21489842.704   -31611008.448 6   3611067.622 6
  19867658.337   -35369023.138 7    197236.883 7
 91  3  1  5 19 29.9970000  0  5  9 12  2  6 13
  19695471.899    -2465223.434 7  -1877071.472 7
  21363199.759   -21366068.724 7 -15770602.322 7
  22221132.673   -25664296.368 6   2775105.919 6
  21496172.735   -31577748.181 6   3636984.700 6
  19868981.360   -35362074.749 7    202651.211 7
 91  3  1  5 19 44.9970000  0  5  9 12  2  6 13
  19693882.478    -2473581.261 7  -1883584.199 6
  21353090.376   -21419196.478 7 -15812000.535 7
  22224793.946   -25645060.161 6   2790095.162 6
  21502520.017   -31544384.788 6   3662982.131 6
  19870319.431   -35355037.917 7    208134.456 7
 91  3  1  5 19 59.9970000  0  5  9 12  2  6 13
  19692321.399    -2481783.195 7  -1889975.454 7
  21342995.087   -21472243.385 7 -15853335.750 7
  22228466.290   -25625771.604 6   2805125.181 6
  21508889.532   -31510923.913 6   3689055.521 6
  19871674.610   -35347918.134 7    213682.342 7
 91  3  1  5 20 14.9970000  0  5  9 12  2  6 13
  19690790.876    -2489828.131 7  -1896244.361 6
  21332917.751   -21525207.884 7 -15894606.752 7
  22232145.290   -25606429.540 5   2820196.895 6
  21515274.626   -31477364.685 6   3715205.550 6
  19873045.673   -35340714.656 7    219295.435 7
 91  3  1  5 20 29.9970000  0  5  9 12  2  6 13
  19689290.321    -2497717.129 7  -1902391.773 6
  21322852.767   -21578090.957 7 -15935814.302 7
  22235835.837   -25587035.394 6   2835309.203 6
  21521679.837   -31443708.750 6   3741430.935 6
  19874432.056   -35333429.085 7    224972.506 7
 91  3  1  5 20 44.9970000  0  5  9 12  2  6 13
  19687818.196    -2505449.380 7  -1908417.029 7
  21312805.845   -21630891.349 7 -15976957.427 7
  22239537.642   -25567588.199 6   2850462.838 5
  21528103.548   -31409955.265 6   3767732.341 6
  19875833.407   -35326060.868 7    230713.973 7
 91  3  1  5 20 59.9970000  0  5  9 12  2  6 13
  19686379.462    -2513018.347 7  -1914315.059 6
  21302775.782   -21683602.397 7 -16018030.934 7
  22243247.048   -25548081.620 5   2865662.764 5
  21534545.876   -31376098.218 6   3794114.437 6
  19877252.251   -35318603.909 7    236524.589 7
 91  3  1  5 21 14.9970000  0  5  9 12  2  6 13
  19684969.251    -2520425.245 7  -1920086.806 6
  21292760.837   -21736225.125 7 -16059035.620 7
  22246968.642   -25528517.154 5   2880907.785 5
  21541005.267   -31342139.397 6   3820575.838 6
  19878687.946   -35311059.889 7    242403.040 7
 91  3  1  5 21 29.9970000  0  5  9 12  2  6 13
  19683590.282    -2527669.622 7  -1925731.898 6
  21282764.712   -21788758.301 7 -16099970.518 7
  22250704.360   -25508893.772 5   2896198.720 6
  21547488.040   -31308078.151 6   3847117.058 6
  19880140.892   -35303428.157 7    248349.849 7
 91  3  1  5 21 44.9970000  0  5  9 12  2  6 13
  19682243.868    -2534752.717 7  -1931251.326 6
  21272785.501   -21841203.332 7 -16140836.742 7
  22254450.439   -25489213.256 5   2911534.178 6
  21553988.907   -31273916.541 6   3873736.485 6
  19881610.571   -35295710.780 7    254363.392 7
 91  3  1  5 21 59.9970000  0  5  9 12  2  6 13
  19680923.274    -2541684.513 7  -1936652.861 7
  21262820.267   -21893569.536 7 -16181641.534 7
  22258202.189   -25469485.329 5   2926906.581 5
  21560506.024   -31239664.468 6   3900426.384 6
  19883092.103   -35287918.042 7    260435.652 7
 91  3  1  5 22 14.9970000  0  5  9 12  2  6 13
  19679635.423    -2548458.832 7  -1941931.668 6
  21252871.610   -21945850.562 7 -16222379.958 7
  22261967.314   -25449703.982 5   2942320.593 6
  21567045.493   -31205316.276 6   3927191.198 6
  19884590.751   -35280044.019 7    266571.259 7
 91  3  1  5 22 29.9970000  0  5  9 12  2  6 13
  19678375.282    -2555074.949 7  -1947087.221 6
  21242938.954   -21998045.644 7 -16263051.412 7
  22265743.681   -25429868.822 5   2957776.548 5
  21573597.853   -31170871.765 6   3954031.067 6
  19886104.946   -35272088.559 7    272770.325 7
 91  3  1  5 22 44.9970000  0  5  9 12  2  6 13
  19677146.509    -2561535.372 7  -1952121.454 6
  21233021.696   -22050156.475 7 -16303657.215 7
  22269528.392   -25409981.991 5   2973272.762 5
  21580172.610   -31136333.365 6   3980944.082 6
  19887634.540   -35264054.075 7    279030.968 7
 91  3  1  5 22 59.9970000  0  5  9 12  2  6 13
  19675948.884    -2567828.071 7  -1957024.986 6
  21223123.446   -22102170.966 7 -16344187.955 7
  22273324.181   -25390031.667 5   2988818.455 5
  21586764.142   -31101689.543 6   4007939.253 6
  19889180.782   -35255928.995 7    285362.192 7
 91  3  1  5 23 14.9970000  0  5  9 12  2  6 13
  19674784.087    -2573949.371 7  -1961794.984 6
  21213245.735   -22154085.104 7 -16384640.496 7
  22277132.134   -25370014.372 5   3004416.331 5
  21593375.360   -31066937.070 6   4035019.079 6
  19890743.540   -35247710.165 7    291766.479 7
 91  3  1  5 23 29.9970000  0  5  9 12  2  6 13
  19673648.571    -2579924.197 7  -1966450.807 6
  21203379.946   -22205923.399 7 -16425033.931 7
  22280950.040   -25349954.758 5   3020047.189 5
  21600006.720   -31032101.043 6   4062164.019 6
  19892321.564   -35239422.706 7    298224.237 7
 91  3  1  5 23 44.9970000  0  5  9 12  2  6 13
  19672540.384    -2585744.738 7  -1970986.423 6
  21193532.689   -22257677.885 7 -16465362.069 7
  22284775.282   -25329845.211 5   3035716.955 5
  21606651.384   -30997174.049 6   4089379.841 6
  19893912.743   -35231059.305 7    304741.177 7
 91  3  1  5 23 59.9970000  0  5  9 12  2  6 13
  19671462.954    -2591405.224 7  -1975397.340 6
  21183701.048   -22309342.294 7 -16505620.016 7
  22288615.923   -25309679.729 5   3051430.301 5
  21613316.517   -30962150.563 6   4116670.846 6
  19895519.892   -35222614.098 7    311321.859 7
 91  3  1  5 24 14.9970000  0  5  9 12  2  6 13
  19670414.876    -2596907.519 7  -1979684.965 6
  21173886.071   -22360917.978 7 -16545808.818 7
  22292464.071   -25289460.131 5   3067185.825 5
  21619999.243   -30927032.548 6   4144035.517 6
  19897142.251   -35214089.550 7    317964.364 7
 91  3  1  5 24 29.9970000  0  5  9 12  2  6 13
  19669399.962    -2602244.863 7  -1983844.072 6
  21164090.837   -22412398.465 7 -16585923.452 7
  22296324.134   -25269180.348 5   3082988.249 5
  21626702.610   -30891814.091 6   4171478.449 6
  19898779.673   -35205479.468 7    324673.525 7
 91  3  1  5 24 44.9970000  0  5  9 12  2  6 13
  19668415.649    -2607424.561 7  -1987880.334 7
  21154309.142   -22463790.316 7 -16625969.013 7
  22300189.806   -25248847.302 5   3098832.159 5
  21633420.837   -30856502.402 6   4198994.041 5
  19900433.696   -35196790.950 7    331443.800 7
 91  3  1  5 24 59.9970000  0  5  9 12  2  6 13
  19667459.204    -2612447.944 7  -1991794.785 6
  21144547.454   -22515094.622 7 -16665946.360 7
  22304069.282   -25228462.415 5   3114716.478 5
  21640157.931   -30821099.160 6   4226580.968 5
  19902102.368   -35188025.793 7    338273.791 7
 91  3  1  5 25 14.9970000  0  5  9 12  2  6 13
  19666533.907    -2617310.733 7  -1995584.127 6
  21134801.274   -22566307.032 7 -16705852.097 7
  22307959.243   -25208021.671 5   3130644.307 5
  21646913.892   -30785600.608 6   4254242.157 5
  19903784.095   -35179180.402 7    345166.312 7
 91  3  1  5 25 29.9970000  0  5  9 12  2  6 13
  19665639.064    -2622014.219 7  -1999249.308 7
  21125074.634   -22617427.897 7 -16745686.504 7
  22311859.431   -25187525.808 5   3146615.101 5
  21653687.017   -30750008.023 6   4281976.631 5
  19905482.759   -35170256.054 7    352120.349 7
 91  3  1  5 25 44.9970000  0  5  9 12  2  6 13
  19664775.259    -2626555.801 7  -2002788.336 6
  21115362.790   -22668454.761 7 -16785447.659 7
  22315769.821   -25166972.717 5   3162630.485 5
  21660477.587   -30714319.493 6   4309785.858 6
  19907196.103   -35161250.538 7    359137.638 7
 91  3  1  5 25 59.9970000  0  5  9 12  2  6 13
  19663941.657    -2630937.354 7  -2006202.684 6
  21105667.970   -22719388.950 7 -16825136.609 7
  22319691.618   -25146364.052 5   3178689.166 5
  21667286.548   -30678536.936 6   4337668.348 6
  19908926.478   -35152166.135 7    366216.394 7
 91  3  1  5 26 14.9970000  0  5  9 12  2  6 13
  19663138.689    -2635155.202 7  -2009489.439 6
  21095995.470   -22770226.176 7 -16864749.996 7
  22323626.095   -25125696.172 5   3194794.002 5
  21674113.681   -30642656.828 5   4365626.859 5
  19910670.157   -35142999.094 7    373359.550 7
 91  3  1  5 26 29.9970000  0  5  9 12  2  6 13
  19662366.853    -2639211.911 7  -2012650.650 6
  21086342.376   -22820969.330 7 -16904290.082 7
  22327570.485   -25104972.131 5   3210942.577 5
  21680959.064   -30606682.624 6   4393658.692 5
  19912427.689   -35133752.907 7    380564.372 7
 91  3  1  5 26 44.9970000  0  5  9 12  2  6 13
  19661625.399    -2643108.862 7  -2015687.377 6
  21076703.001   -22871618.738 7 -16943757.120 7
  22331522.774   -25084192.713 5   3227134.325 5
  21687824.267   -30570615.317 5   4421763.076 5
  19914203.954   -35124428.793 7    387829.919 7
 91  3  1  5 26 59.9970000  0  5  9 12  2  6 13
  19660915.001    -2646845.114 7  -2018598.871 6
  21067083.142   -22922173.391 7 -16983150.322 7
  22335488.657   -25063357.198 5   3243369.780 5
  21694703.454   -30534454.633 5   4449940.215 5
  19915991.970   -35115026.267 7    395156.563 7
 91  3  1  5 27 14.9970000  0  5  9 12  2  6 13
  19660232.673    -2650423.127 7  -2021387.082 6
  21057480.212   -22972635.841 7 -17022471.681 7
  22339462.751   -25042468.245 5   3259646.871 5
  21701603.017   -30498203.545 5   4478187.809 5
  19917796.798   -35105548.424 7    402541.897 7
 91  3  1  5 27 29.9970000  0  5  9 12  2  6 13
  19659584.993    -2653835.848 7  -2024046.471 7
  21047896.032   -23022998.108 7 -17061714.971 7
  22343449.954   -25021518.359 5   3275971.441 5
  21708521.837   -30461854.846 6   4506511.453 5
  19919614.306   -35095987.834 7    409991.712 7
 91  3  1  5 27 44.9970000  0  5  9 12  2  6 13
  19658965.423    -2657086.677 7  -2026579.714 6
  21038332.704   -23073263.589 7 -17100882.852 7
  22347448.181   -25000511.458 5   3292340.448 5
  21715452.212   -30425412.533 5   4534908.044 5
  19921450.439   -35086348.339 7    417503.016 7
 91  3  1  5 27 59.9970000  0  5  9 12  2  6 13
  19658378.595    -2660174.659 7  -2028986.091 6
  21028785.579   -23123431.045 7 -17139974.343 7
  22351456.603   -24979446.517 5   3308754.672 5
  21722406.345   -30388875.943 5   4563378.095 5
  19923299.329   -35076629.612 7    425076.048 7
 91  3  1  5 28 14.9970000  0  5  9 12  2  6 13
  19657818.571    -2663113.021 7  -2031275.846 7
  21019254.314   -23173512.849 7 -17178999.099 7
  22355472.493   -24958336.320 5   3325204.164 5
  21729373.642   -30352258.222 5   4591911.367 5
  19925161.649   -35066844.741 7    432700.632 7
 91  3  1  5 28 29.9970000  0  5  9 12  2  6 13
  19657290.954    -2665892.808 7  -2033442.056 6
  21009741.071   -23223500.428 7 -17217950.430 7
  22359501.407   -24937172.650 5   3341695.320 5
  21736360.978   -30315551.430 5   4620514.046 5
  19927038.368   -35056986.013 7    440382.762 7
 91  3  1  5 28 44.9970000  0  5  9 12  2  6 13
  19656792.024    -2668510.375 7  -2035481.860 7
  21000246.985   -23273389.268 7 -17256824.822 7
  22363537.056   -24915951.326 5   3358231.400 5
  21743365.212   -30278751.575 5   4649189.241 5
  19928927.564   -35047049.298 7    448125.657 7
 91  3  1  5 28 59.9970000  0  5  9 12  2  6 13
  19656325.251    -2670964.393 7  -2037394.206 7
  20990774.009   -23323177.616 7 -17295620.905 7
  22367586.798   -24894670.990 5   3374813.475 5
  21750383.782   -30241857.794 5   4677937.624 5
  19930835.110   -35037033.572 7    455930.119 7
 91  3  1  5 29 14.9970000  0  5  9 12  2  6 13
  19655889.360    -2673258.387 7  -2039181.884 6
  20981318.446   -23372868.984 7 -17334341.424 7
  22371647.360   -24873335.599 5   3391438.435 5
  21757422.423   -30204874.131 5   4706756.049 5
  19932753.587   -35026943.063 7    463792.846 7
 91  3  1  5 29 29.9970000  0  5  9 12  2  6 13
  19655483.540    -2675393.881 7  -2040846.039 7
  20971879.689   -23422463.967 7 -17372986.832 7
  22375720.345   -24851946.009 5   3408105.632 5
  21764475.579   -30167802.003 5   4735643.403 5
  19934687.720   -35016778.827 7    471713.039 7
 91  3  1  5 29 44.9970000  0  5  9 12  2  6 13
  19655107.735    -2677366.079 7  -2042382.942 6
  20962461.610   -23471957.840 7 -17411553.458 7
  22379802.204   -24830497.934 5   3424818.401 5
  21771548.657   -30130637.249 5   4764602.940 5
  19936636.853   -35006536.882 7    479693.781 7
 91  3  1  5 29 59.9970000  0  5  9 12  2  6 13
  19654763.368    -2679177.923 7  -2043794.921 7
  20953061.204   -23521353.310 7 -17450043.409 7
  22383891.384   -24808994.293 5   3441574.476 5
  21778638.626   -30093383.114 5   4793632.119 5
  19938601.142   -34996220.527 7    487732.497 7
 91  3  1  5 30 14.9970000  0  5  9 12  2  6 13
  19654449.837    -2680830.286 7  -2045082.601 7
  20943681.493   -23570650.308 7 -17488456.624 7
  22387994.860   -24787435.624 5   3458373.425 5
  21785742.407   -30056040.234 5   4822730.449 5
  19940578.540   -34985830.267 7    495828.805 7
 91  3  1  5 30 29.9970000  0  5  9 12  2  6 13
  19654165.579    -2682321.583 7  -2046244.789 7
  20934318.939   -23619847.599 7 -17526792.144 7
  22392106.712   -24765821.048 5   3475215.941 5
  21792867.040   -30018607.953 5   4851898.443 5
  19942569.274   -34975365.380 7    503983.261 7
 91  3  1  5 30 44.9970000  0  5  9 12  2  6 13
  19653911.603    -2683652.379 7  -2047281.913 7
  20924975.009   -23668945.015 7 -17565049.843 7
  22396230.806   -24744150.626 5   3492101.955 5
  21800007.220   -29981086.872 5   4881135.634 5
  19944574.353   -34964826.744 7    512195.190 7
 91  3  1  5 30 59.9970000  0  5  9 12  2  6 13
  19653688.649    -2684826.092 7  -2048196.620 7
  20915650.681   -23717945.573 7 -17603232.070 7
  22400364.423   -24722427.754 5   3509028.836 5
  21807162.517   -29943480.641 5   4910439.171 5
  19946593.970   -34954217.994 7    520461.754 7
 91  3  1  5 31 14.9970000  0  5  9 12  2  6 13
  19653496.040    -2685842.088 7  -2048988.454 7
  20906344.524   -23766848.820 7 -17641338.469 7
  22404510.462   -24700652.294 5   3525996.705 5
  21814336.298   -29905789.247 5   4939809.085 5
  19948625.235   -34943539.203 7    528782.891 7
 91  3  1  5 31 29.9970000  0  5  9 12  2  6 13
  19653331.728    -2686698.963 7  -2049656.286 7
  20897058.665   -23815652.056 7 -17679366.937 7
  22408664.454   -24678821.911 5   3543007.382 5
  21821524.149   -29868010.951 5   4969246.693 5
  19950670.603   -34932788.300 7    537160.220 7
 91  3  1  5 31 44.9970000  0  5  9 12  2  6 13
  19653200.970    -2687393.714 7  -2050197.788 7
  20887791.290   -23864352.355 7 -17717315.198 7
  22412827.235   -24656934.113 5   3560062.805 5
  21828729.642   -29830143.461 5   4998753.812 5
  19952730.806   -34921962.994 7    545595.526 7
 91  3  1  5 31 59.9970000  0  5  9 12  2  6 13
  19653099.595    -2687929.758 7  -2050615.644 7
  20878542.431   -23912952.883 7 -17755185.713 7
  22417005.056   -24634992.482 5   3577160.164 5
  21835955.993   -29792190.610 5   5028327.456 5
  19954804.298   -34911067.183 7    554085.770 7
 91  3  1  5 32 14.9970000  0  5  9 12  2  6 13
  19653027.032    -2688309.382 7  -2050911.585 7
  20869313.642   -23961455.104 7 -17792979.626 7
  22421187.829   -24612998.717 5   3594298.158 5
  21843190.751   -29754154.349 5   5057966.072 5
  19956889.985   -34900102.902 7    562629.367 7
 91  3  1  5 32 29.9970000  0  5  9 12  2  6 13
  19652985.564    -2688528.264 7
  20860102.704   -24009854.992 7 -17830693.799 7
  22425385.767   -24590949.233 5   3611479.550 5
  21850447.392   -29716031.488 5   5087672.197 5
  19958991.681   -34889066.931 7    571228.827 7
 91  3  1  5 32 44.9970000  0  5  9 12  2  6 13
  19652975.220    -2688584.041 7
  20850912.173   -24058149.101 7 -17868325.549 7
  22429590.978   -24568841.016 5   3628706.716 5
  21857715.665   -29677819.112 5   5117448.063 5
  19961105.267   -34877956.234 7    579886.517 7
 91  3  1  5 32 59.9970000  0  5  9 12  2  6 13
  19652993.657    -2688481.592 7
  20841742.040   -24106342.356 7 -17905878.712 7
  22433811.321   -24546678.982 5   3645975.803 5
  21865005.009   -29639522.670 5   5147289.421 5
  19963233.376   -34866776.246 7    588598.200 7
 91  3  1  5 33 14.9970000  0  5  9 12  2  6 13
  19653048.032    -2688205.285 7
  20832594.165   -24154419.032 7 -17943341.030 7
  22438042.017   -24524448.102 5   3663298.559 5
  21872310.884   -29601127.356 5   5177207.839 5
  19965376.071   -34855511.954 7    597375.569 7
 91  3  1  5 33 29.9970000  0  5  9 12  2  6 13
  19653129.024    -2687786.255 7         -.14317
  20823461.165   -24202409.112 7 -17980735.876 7
  22442278.524   -24502178.622 5   3680651.393 5
  21879631.954   -29562663.661 5   5207179.528 5
  19967529.556   -34844194.131 7    606194.656 7
 91  3  1  5 33 44.9970000  0  5  9 12  2  6 13
  19653239.759    -2687203.229 7       454.037 7
  20814350.204   -24250291.555 7 -18018046.845 7
  22446526.978   -24479849.984 5   3698050.311 5
  21886967.009   -29524111.263 5   5237220.332 5
  19969698.399   -34832802.323 7    615071.388 7
 91  3  1  5 33 59.9970000  0  5  9 12  2  6 13
  19653380.345    -2686462.118 7      1031.373 7
  20805257.110   -24298071.761 7 -18055278.148 7
  22450787.040   -24457468.072 5   3715490.750 5
  21894318.954   -29485476.282 5   5267325.498 5
  19971877.985   -34821342.619 7    624001.028 7
 91  3  1  5 34 14.9970000  0  5  9 12  2  6 13
  19653549.884    -2685565.166 7      1730.174 7
  20796182.728   -24345751.080 7 -18092430.837 7
  22455053.767   -24435034.358 5   3732971.546 5
  21901688.907   -29446760.613 5   5297493.533 5
  19974070.142   -34809817.107 7    632981.952 7
 91  3  1  5 34 29.9970000  0  5  9 12  2  6 13
  19653751.478    -2684507.504 7      2554.181 7
  20787131.110   -24393325.106 7 -18129501.480 7
  22459335.814   -24412544.884 5   3750495.797 5
  21909067.728   -29407960.482 5   5327727.380 5
  19976278.853   -34798221.803 7    642017.251 7
 91  3  1  5 34 44.9970000  0  5  9 12  2  6 13
  19653982.899    -2683288.823 7      3503.661 7
  20778098.673   -24440792.458 7 -18166489.003 7
  22463625.556   -24389998.770 5   3768064.194 5
  21916467.642   -29369075.289 5   5358027.506 5
  19978499.056   -34786556.016 7    651107.468 7
 91  3  1  5 34 59.9970000  0  5  9 12  2  6 13
  19654250.048    -2681880.943 7      4600.583 7
  20769090.845   -24488124.699 7 -18203371.248 7
  22467932.243   -24367367.586 5   3785698.852 5
  21923890.001   -29330077.273 5   5388415.552 5
  19980736.790   -34774791.932 7    660274.286 7
 91  3  1  5 35 14.9970000  0  5  9 12  2  6 13
  19654550.751    -2680309.205 7      5825.163 7
  20760105.079   -24535347.259 7 -18240168.021 7
  22472250.446   -24344677.349 5   3803379.552 5
  21931329.439   -29290992.322 5   5418871.332 5
  19982988.462   -34762955.628 7    669497.376 7
 91  3  1  5 35 29.9970000  0  5  9 12  2  6 13
  19654876.071    -2678596.319 7      7159.751 8
  20751136.821   -24582481.460 7 -18276895.948 7
  22476574.899   -24321949.676 5   3821089.398 5
  21938779.470   -29251842.620 5   5449377.582 5
  19985251.243   -34751069.010 7    678759.679 7
 91  3  1  5 35 44.9970000  0  5  9 12  2  6 13
  19655228.829    -2676744.007 7      8602.975 7
  20742182.853   -24629529.623 7 -18313556.827 7
  22480904.884   -24299187.192 5   3838826.380 5
  21946238.040   -29212631.045 5   5479932.044 5
  19987522.267   -34739135.081 7    688058.845 7
 91  3  1  5 35 59.9970000  0  5  9 12  2  6 13
  19655611.657    -2674732.419 7     10170.292 7
  20733249.837   -24676471.199 7 -18350134.659 7
  22485246.985   -24276369.794 5   3856606.165 5
  21953717.485   -29173337.797 5   5510550.131 5
  19989806.657   -34727134.014 7    697410.322 7
 91  3  1  5 36 14.9970000  0  5  9 12  2  6 13
  19656026.290    -2672557.843 7     11864.637 7
  20724338.345   -24723301.545 7 -18386625.814 7
  22489602.189   -24253493.444 5   3874431.868 5
  21961209.415   -29133958.810 5   5541235.028 5
  19992102.110   -34715061.660 7    706817.356 7
 91  3  1  5 36 29.9960000  0  5  9 12  2  6 13
  19656470.535    -2670223.351 7     13683.575 7
  20715448.441   -24770021.162 7 -18423030.686 8
  22493966.504   -24230563.351 5   3892299.433 5
  21968719.809   -29094501.040 5   5571981.320 5
  19994414.668   -34702923.019 7    716276.040 7
 91  3  1  5 36 44.9960000  0  5  9 12  2  6 13
  19656944.207    -2667732.515 7     15624.346 7
  20706576.699   -24816638.607 7 -18459355.942 7
  22498337.965   -24207579.153 5   3910209.180 4
  21976243.621   -29054962.092 5   5602790.863 5
  19996734.551   -34690719.612 7    725785.188 7
 91  3  1  5 36 59.9960000  0  5  9 12  2  6 13
  19657448.434    -2665081.662 7     17689.811 7
  20697727.129   -24863147.103 7 -18495596.305 8
  22502720.645   -24184539.227 5   3928162.363 5
  21983782.332   -29015341.620 5   5633663.943 5
  19999070.035   -34678449.083 7    735346.644 7
 91  3  1  5 37 14.9960000  0  5  9 12  2  6 13
  19657983.660    -2662272.998 7     19878.229 7
  20688895.895   -24909548.927 7 -18531753.548 8
  22507115.074   -24161446.180 5   3946156.924 5
  21991335.402   -28975642.642 5   5664598.197 5
  20001418.004   -34666114.405 7    744958.077 7
 91  3  1  5 37 29.9960000  0  5  9 12  2  6 13
  19658547.168    -2659308.310 7     22188.240 8
  20680086.559   -24955844.327 7 -18567827.858 7
  22511522.629   -24138300.546 5   3964192.472 5
  21998907.551   -28935866.010 5   5695592.940 5
  20003777.395   -34653716.478 7    754618.796 7
 91  3  1  5 37 44.9960000  0  5  9 12  2  6 13
  19659141.981    -2656183.781 7     24622.805 7
  20671297.731   -25002030.031 7 -18603816.696 7
  22515935.770   -24115099.603 5   3982271.112 5
  22006492.902   -28896009.233 5   5726650.159 5
  20006148.457   -34641252.805 7    764330.750 7
 91  3  1  5 37 59.9960000  0  5  9 12  2  6 13
  19659767.207    -2652897.683 7     27183.251 7
  20662530.215   -25048103.606 7 -18639718.156 7
  22520364.316   -24091841.217 5   4000394.501 5
  22014090.613   -28856070.413 5   5757771.288 5
  20008534.223   -34628721.335 7    774095.533 7
